Observation data for Tarzan on 11/06/2019      Previous  Date       Current Mesonet Observations  Soil Data  Daily Summary Page  Observations in Plain Language
KTA1 060600Z 08004KT 12/06 A302 RMK A01 T01210063  RH  068%=      5-min Rain = 0
KTA1 060601Z 08005KT 12/06 A302 RMK A01 T01210063  RH  068%=      5-min Rain = 0
KTA1 060602Z 08005KT 12/06 A302 RMK A01 T01210063  RH  068%=      5-min Rain = 0
KTA1 060603Z 08005KT 12/06 A302 RMK A01 T01210063  RH  068%=      5-min Rain = 0
KTA1 060604Z 08004KT 12/06 A302 RMK A01 T01220063  RH  068%=      5-min Rain = 0
KTA1 060605Z 08004KT 12/06 A302 RMK A01 T01220063  RH  067%=      5-min Rain = 0
KTA1 060606Z 08004KT 12/06 A302 RMK A01 T01220063  RH  067%=      5-min Rain = 0
KTA1 060607Z 08004KT 12/06 A302 RMK A01 T01220063  RH  067%=      5-min Rain = 0
KTA1 060608Z 08004KT 12/06 A302 RMK A01 T01220063  RH  067%=      5-min Rain = 0
KTA1 060609Z 08003KT 12/06 A302 RMK A01 T01220063  RH  067%=      5-min Rain = 0
KTA1 060610Z 08003KT 12/06 A302 RMK A01 T01220063  RH  067%=      5-min Rain = 0
KTA1 060611Z 08003KT 12/06 A302 RMK A01 T01220063  RH  067%=      5-min Rain = 0
KTA1 060612Z 08003KT 12/06 A302 RMK A01 T01220063  RH  067%=      5-min Rain = 0
KTA1 060613Z 07003KT 12/06 A302 RMK A01 T01220063  RH  067%=      5-min Rain = 0
KTA1 060614Z 07003KT 12/06 A302 RMK A01 T01220063  RH  067%=      5-min Rain = 0
KTA1 060615Z 07003KT 12/06 A302 RMK A01 T01220063  RH  067%=      5-min Rain = 0
KTA1 060616Z 08003KT 12/06 A302 RMK A01 T01220063  RH  067%=      5-min Rain = 0
KTA1 060617Z 07003KT 12/06 A302 RMK A01 T01220063  RH  067%=      5-min Rain = 0
KTA1 060618Z 07003KT 12/06 A302 RMK A01 T01220063  RH  067%=      5-min Rain = 0
KTA1 060619Z 08004KT 12/06 A302 RMK A01 T01220063  RH  067%=      5-min Rain = 0
KTA1 060620Z 08004KT 12/06 A3019 RMK A01 T01220063  RH  067%=      5-min Rain = 0
KTA1 060621Z 08004KT 12/06 A3019 RMK A01 T01210062  RH  067%=      5-min Rain = 0
KTA1 060622Z 08004KT 12/06 A3019 RMK A01 T01220063  RH  067%=      5-min Rain = 0
KTA1 060623Z 08004KT 12/06 A3019 RMK A01 T01210063  RH  067%=      5-min Rain = 0
KTA1 060624Z 08004KT 12/06 A3019 RMK A01 T01210062  RH  067%=      5-min Rain = 0
KTA1 060625Z 08004KT 12/06 A3019 RMK A01 T01210062  RH  067%=      5-min Rain = 0
KTA1 060626Z 08004KT 12/06 A3019 RMK A01 T01200061  RH  067%=      5-min Rain = 0
KTA1 060627Z 08004KT 12/06 A3019 RMK A01 T01200061  RH  067%=      5-min Rain = 0
KTA1 060628Z 08004KT 12/06 A3019 RMK A01 T01190062  RH  068%=      5-min Rain = 0
KTA1 060629Z 08004KT 12/06 A3019 RMK A01 T01190062  RH  068%=      5-min Rain = 0
KTA1 060630Z 07004KT 12/06 A3019 RMK A01 T01190062  RH  068%=      5-min Rain = 0
KTA1 060631Z 07004KT 12/06 A3019 RMK A01 T01190062  RH  068%=      5-min Rain = 0
KTA1 060632Z 07004KT 12/06 A3019 RMK A01 T01180061  RH  068%=      5-min Rain = 0
KTA1 060633Z 07004KT 12/06 A3019 RMK A01 T01180062  RH  068%=      5-min Rain = 0
KTA1 060634Z 07004KT 12/06 A3019 RMK A01 T01180061  RH  068%=      5-min Rain = 0
KTA1 060635Z 07004KT 12/06 A3019 RMK A01 T01180061  RH  068%=      5-min Rain = 0
KTA1 060636Z 07004KT 12/06 A3019 RMK A01 T01180061  RH  068%=      5-min Rain = 0
KTA1 060637Z 07004KT 12/06 A3019 RMK A01 T01180062  RH  068%=      5-min Rain = 0
KTA1 060638Z 07004KT 12/06 A3019 RMK A01 T01180062  RH  068%=      5-min Rain = 0
KTA1 060639Z 07004KT 12/06 A3019 RMK A01 T01180062  RH  068%=      5-min Rain = 0
KTA1 060640Z 07005KT 12/06 A3019 RMK A01 T01180062  RH  068%=      5-min Rain = 0
KTA1 060641Z 07005KT 12/06 A3019 RMK A01 T01180062  RH  068%=      5-min Rain = 0
KTA1 060642Z 07005KT 12/06 A3019 RMK A01 T01180062  RH  068%=      5-min Rain = 0
KTA1 060643Z 07004KT 12/06 A3019 RMK A01 T01180062  RH  068%=      5-min Rain = 0
KTA1 060644Z 07004KT 12/06 A3019 RMK A01 T01180062  RH  068%=      5-min Rain = 0
KTA1 060645Z 07004KT 12/06 A3019 RMK A01 T01180062  RH  068%=      5-min Rain = 0
KTA1 060646Z 07004KT 12/06 A3019 RMK A01 T01170061  RH  069%=      5-min Rain = 0
KTA1 060647Z 07004KT 12/06 A3019 RMK A01 T01170062  RH  069%=      5-min Rain = 0
KTA1 060648Z 07004KT 12/06 A3019 RMK A01 T01170062  RH  069%=      5-min Rain = 0
KTA1 060649Z 07004KT 12/06 A3019 RMK A01 T01170062  RH  069%=      5-min Rain = 0
KTA1 060650Z 07004KT 12/06 A3019 RMK A01 T01170062  RH  069%=      5-min Rain = 0
KTA1 060651Z 07004KT 12/06 A3019 RMK A01 T01170062  RH  069%=      5-min Rain = 0
KTA1 060652Z 08004KT 12/06 A3019 RMK A01 T01160061  RH  069%=      5-min Rain = 0
KTA1 060653Z 08003KT 12/06 A3019 RMK A01 T01170062  RH  069%=      5-min Rain = 0
KTA1 060654Z 07003KT 12/06 A3019 RMK A01 T01170062  RH  069%=      5-min Rain = 0
KTA1 060655Z 08003KT 12/06 A3019 RMK A01 T01160062  RH  069%=      5-min Rain = 0
KTA1 060656Z 08003KT 12/06 A3019 RMK A01 T01160062  RH  069%=      5-min Rain = 0
KTA1 060657Z 08003KT 12/06 A3019 RMK A01 T01160062  RH  069%=      5-min Rain = 0
KTA1 060658Z 08003KT 12/06 A3019 RMK A01 T01160061  RH  069%=      5-min Rain = 0
KTA1 060659Z 08003KT 12/06 A3019 RMK A01 T01160061  RH  069%=      5-min Rain = 0
KTA1 060700Z 08004KT 12/06 A3019 RMK A01 T01160062  RH  069%=      5-min Rain = 0
KTA1 060701Z 08004KT 12/06 A3019 RMK A01 T01160062  RH  069%=      5-min Rain = 0
KTA1 060702Z 08004KT 12/06 A3019 RMK A01 T01160061  RH  069%=      5-min Rain = 0
KTA1 060703Z 08004KT 12/06 A3019 RMK A01 T01160062  RH  069%=      5-min Rain = 0
KTA1 060704Z 08004KT 12/06 A3019 RMK A01 T01160062  RH  070%=      5-min Rain = 0
KTA1 060705Z 08004KT 12/06 A3018 RMK A01 T01160062  RH  070%=      5-min Rain = 0
KTA1 060706Z 08004KT 12/06 A3018 RMK A01 T01150061  RH  069%=      5-min Rain = 0
KTA1 060707Z 08004KT 12/06 A3018 RMK A01 T01150061  RH  069%=      5-min Rain = 0
KTA1 060708Z 08004KT 12/06 A3018 RMK A01 T01150061  RH  069%=      5-min Rain = 0
KTA1 060709Z 08004KT 11/06 A3018 RMK A01 T01140061  RH  070%=      5-min Rain = 0
KTA1 060710Z 08004KT 11/06 A3018 RMK A01 T01140062  RH  070%=      5-min Rain = 0
KTA1 060711Z 08003KT 11/06 A3018 RMK A01 T01140061  RH  070%=      5-min Rain = 0
KTA1 060712Z 08003KT 11/06 A3018 RMK A01 T01140061  RH  070%=      5-min Rain = 0
KTA1 060713Z 08003KT 11/06 A3019 RMK A01 T01140061  RH  070%=      5-min Rain = 0
KTA1 060714Z 09003KT 11/06 A3019 RMK A01 T01140060  RH  070%=      5-min Rain = 0
KTA1 060715Z 09003KT 11/06 A3019 RMK A01 T01130060  RH  070%=      5-min Rain = 0
KTA1 060716Z 09002KT 11/06 A3019 RMK A01 T01130060  RH  070%=      5-min Rain = 0
KTA1 060717Z 09002KT 11/06 A3019 RMK A01 T01130060  RH  070%=      5-min Rain = 0
KTA1 060718Z 09002KT 11/06 A3019 RMK A01 T01130061  RH  070%=      5-min Rain = 0
KTA1 060719Z 10003KT 11/06 A3019 RMK A01 T01130061  RH  070%=      5-min Rain = 0
KTA1 060720Z 10002KT 11/06 A3019 RMK A01 T01130061  RH  070%=      5-min Rain = 0
KTA1 060721Z 10003KT 11/06 A3019 RMK A01 T01120060  RH  070%=      5-min Rain = 0
KTA1 060722Z 11002KT 11/06 A3019 RMK A01 T01120059  RH  070%=      5-min Rain = 0
KTA1 060723Z 11002KT 11/06 A3019 RMK A01 T01120059  RH  070%=      5-min Rain = 0
KTA1 060724Z 12003KT 11/06 A3019 RMK A01 T01120059  RH  070%=      5-min Rain = 0
KTA1 060725Z 11003KT 11/06 A3019 RMK A01 T01110059  RH  070%=      5-min Rain = 0
KTA1 060726Z 11002KT 11/06 A3019 RMK A01 T01110059  RH  070%=      5-min Rain = 0
KTA1 060727Z 12002KT 11/06 A3019 RMK A01 T01100058  RH  070%=      5-min Rain = 0
KTA1 060728Z 13002KT 11/06 A3019 RMK A01 T01100059  RH  070%=      5-min Rain = 0
KTA1 060729Z 12002KT 11/06 A3019 RMK A01 T01100058  RH  070%=      5-min Rain = 0
KTA1 060730Z 13002KT 11/06 A3019 RMK A01 T01100057  RH  070%=      5-min Rain = 0
KTA1 060731Z 13002KT 11/06 A3019 RMK A01 T01100058  RH  070%=      5-min Rain = 0
KTA1 060732Z 13002KT 11/06 A3019 RMK A01 T01100059  RH  071%=      5-min Rain = 0
KTA1 060733Z 14002KT 11/06 A3019 RMK A01 T01100058  RH  071%=      5-min Rain = 0
KTA1 060734Z 14002KT 11/06 A3019 RMK A01 T01100058  RH  070%=      5-min Rain = 0
KTA1 060735Z 14002KT 11/06 A3019 RMK A01 T01090055  RH  069%=      5-min Rain = 0
KTA1 060736Z 14002KT 11/06 A3019 RMK A01 T01090055  RH  069%=      5-min Rain = 0
KTA1 060737Z 14002KT 11/06 A3019 RMK A01 T01080055  RH  069%=      5-min Rain = 0
KTA1 060738Z 13002KT 11/06 A3019 RMK A01 T01080055  RH  070%=      5-min Rain = 0
KTA1 060739Z 13002KT 11/06 A3019 RMK A01 T01080056  RH  071%=      5-min Rain = 0
KTA1 060740Z 14002KT 11/06 A3019 RMK A01 T01070057  RH  071%=      5-min Rain = 0
KTA1 060741Z 14002KT 11/06 A3019 RMK A01 T01070058  RH  072%=      5-min Rain = 0
KTA1 060742Z 14002KT 11/06 A3019 RMK A01 T01080059  RH  072%=      5-min Rain = 0
KTA1 060743Z 14003KT 11/06 A3019 RMK A01 T01080059  RH  071%=      5-min Rain = 0
KTA1 060744Z 14003KT 11/06 A3019 RMK A01 T01090060  RH  072%=      5-min Rain = 0
KTA1 060745Z 14003KT 11/06 A3019 RMK A01 T01090060  RH  071%=      5-min Rain = 0
KTA1 060746Z 14003KT 11/06 A3019 RMK A01 T01100060  RH  071%=      5-min Rain = 0
KTA1 060747Z 14003KT 11/06 A3019 RMK A01 T01100060  RH  071%=      5-min Rain = 0
KTA1 060748Z 15003KT 11/06 A3019 RMK A01 T01100060  RH  071%=      5-min Rain = 0
KTA1 060749Z 15003KT 11/06 A3019 RMK A01 T01100060  RH  071%=      5-min Rain = 0
KTA1 060750Z 15003KT 11/06 A3019 RMK A01 T01100061  RH  072%=      5-min Rain = 0
KTA1 060751Z 14003KT 11/06 A3018 RMK A01 T01100061  RH  072%=      5-min Rain = 0
KTA1 060752Z 14003KT 11/06 A3018 RMK A01 T01100061  RH  072%=      5-min Rain = 0
KTA1 060753Z 14003KT 11/06 A3018 RMK A01 T01110062  RH  072%=      5-min Rain = 0
KTA1 060754Z 14003KT 11/06 A3018 RMK A01 T01110062  RH  072%=      5-min Rain = 0
KTA1 060755Z 14003KT 11/06 A3018 RMK A01 T01110062  RH  072%=      5-min Rain = 0
KTA1 060756Z 14003KT 11/06 A3018 RMK A01 T01110062  RH  072%=      5-min Rain = 0
KTA1 060757Z 14003KT 11/06 A3018 RMK A01 T01110062  RH  072%=      5-min Rain = 0
KTA1 060758Z 14003KT 11/06 A3018 RMK A01 T01110063  RH  072%=      5-min Rain = 0
KTA1 060759Z 14003KT 11/06 A3018 RMK A01 T01110063  RH  072%=      5-min Rain = 0
KTA1 060800Z 14003KT 11/06 A3018 RMK A01 T01120063  RH  072%=      5-min Rain = 0
KTA1 060801Z 14003KT 11/06 A3018 RMK A01 T01120063  RH  072%=      5-min Rain = 0
KTA1 060802Z 14003KT 11/06 A3018 RMK A01 T01120063  RH  072%=      5-min Rain = 0
KTA1 060803Z 14003KT 11/06 A3018 RMK A01 T01120063  RH  072%=      5-min Rain = 0
KTA1 060804Z 14003KT 11/06 A3018 RMK A01 T01120063  RH  072%=      5-min Rain = 0
KTA1 060805Z 14003KT 11/06 A3018 RMK A01 T01110063  RH  072%=      5-min Rain = 0
KTA1 060806Z 14003KT 11/06 A3018 RMK A01 T01110063  RH  072%=      5-min Rain = 0
KTA1 060807Z 14003KT 11/06 A3018 RMK A01 T01110063  RH  072%=      5-min Rain = 0
KTA1 060808Z 14003KT 11/06 A3018 RMK A01 T01110064  RH  073%=      5-min Rain = 0
KTA1 060809Z 14003KT 11/06 A3018 RMK A01 T01110064  RH  073%=      5-min Rain = 0
KTA1 060810Z 13003KT 11/06 A3018 RMK A01 T01110063  RH  072%=      5-min Rain = 0
KTA1 060811Z 13003KT 11/06 A3017 RMK A01 T01110062  RH  072%=      5-min Rain = 0
KTA1 060812Z 13003KT 11/06 A3018 RMK A01 T01110062  RH  072%=      5-min Rain = 0
KTA1 060813Z 13003KT 11/06 A3018 RMK A01 T01100062  RH  072%=      5-min Rain = 0
KTA1 060814Z 14003KT 11/06 A3018 RMK A01 T01110062  RH  072%=      5-min Rain = 0
KTA1 060815Z 14003KT 11/06 A3018 RMK A01 T01110061  RH  072%=      5-min Rain = 0
KTA1 060816Z 14003KT 11/06 A3017 RMK A01 T01100061  RH  072%=      5-min Rain = 0
KTA1 060817Z 13003KT 11/06 A3017 RMK A01 T01100061  RH  072%=      5-min Rain = 0
KTA1 060818Z 13003KT 11/06 A3017 RMK A01 T01100060  RH  071%=      5-min Rain = 0
KTA1 060819Z 13002KT 11/06 A3017 RMK A01 T01100061  RH  072%=      5-min Rain = 0
KTA1 060820Z 13002KT 11/06 A3017 RMK A01 T01100062  RH  072%=      5-min Rain = 0
KTA1 060821Z 13002KT 11/06 A3017 RMK A01 T01090062  RH  072%=      5-min Rain = 0
KTA1 060822Z 13002KT 11/06 A3017 RMK A01 T01090061  RH  072%=      5-min Rain = 0
KTA1 060823Z 14002KT 11/06 A3017 RMK A01 T01090061  RH  072%=      5-min Rain = 0
KTA1 060824Z 14001KT 11/06 A3017 RMK A01 T01090061  RH  072%=      5-min Rain = 0
KTA1 060825Z 16001KT 11/06 A3017 RMK A01 T01090061  RH  072%=      5-min Rain = 0
KTA1 060826Z 17001KT 11/06 A3017 RMK A01 T01090062  RH  073%=      5-min Rain = 0
KTA1 060827Z 18001KT 11/06 A3017 RMK A01 T01080061  RH  073%=      5-min Rain = 0
KTA1 060828Z 18002KT 11/06 A3018 RMK A01 T01080060  RH  072%=      5-min Rain = 0
KTA1 060829Z 19002KT 11/06 A3018 RMK A01 T01060056  RH  071%=      5-min Rain = 0
KTA1 060830Z 19002KT 11/05 A3018 RMK A01 T01060054  RH  070%=      5-min Rain = 0
KTA1 060831Z 18002KT 11/05 A3018 RMK A01 T01050054  RH  071%=      5-min Rain = 0
KTA1 060832Z 19002KT 10/06 A3018 RMK A01 T01040056  RH  072%=      5-min Rain = 0
KTA1 060833Z 19002KT 10/05 A3018 RMK A01 T01040054  RH  071%=      5-min Rain = 0
KTA1 060834Z 19002KT 10/05 A3018 RMK A01 T01040052  RH  071%=      5-min Rain = 0
KTA1 060835Z 19002KT 10/05 A3018 RMK A01 T01030052  RH  071%=      5-min Rain = 0
KTA1 060836Z 20003KT 10/05 A3018 RMK A01 T01030051  RH  070%=      5-min Rain = 0
KTA1 060837Z 19003KT 10/05 A3018 RMK A01 T01030052  RH  071%=      5-min Rain = 0
KTA1 060838Z 18003KT 10/05 A3018 RMK A01 T01030053  RH  071%=      5-min Rain = 0
KTA1 060839Z 18003KT 10/06 A3017 RMK A01 T01030056  RH  073%=      5-min Rain = 0
KTA1 060840Z 18003KT 10/06 A3017 RMK A01 T01030058  RH  073%=      5-min Rain = 0
KTA1 060841Z 18003KT 10/06 A3017 RMK A01 T01040058  RH  073%=      5-min Rain = 0
KTA1 060842Z 18002KT 10/06 A3017 RMK A01 T01040059  RH  074%=      5-min Rain = 0
KTA1 060843Z 18002KT 10/06 A3017 RMK A01 T01040059  RH  074%=      5-min Rain = 0
KTA1 060844Z 17002KT 10/06 A3017 RMK A01 T01040059  RH  074%=      5-min Rain = 0
KTA1 060845Z 16002KT 10/06 A3017 RMK A01 T01040061  RH  074%=      5-min Rain = 0
KTA1 060846Z 16002KT 10/06 A3017 RMK A01 T01040061  RH  075%=      5-min Rain = 0
KTA1 060847Z 16002KT 10/06 A3017 RMK A01 T01040062  RH  075%=      5-min Rain = 0
KTA1 060848Z 16002KT 10/06 A3017 RMK A01 T01040063  RH  075%=      5-min Rain = 0
KTA1 060849Z 16002KT 10/06 A3017 RMK A01 T01040064  RH  076%=      5-min Rain = 0
KTA1 060850Z 16002KT 11/06 A3017 RMK A01 T01050064  RH  076%=      5-min Rain = 0
KTA1 060851Z 16002KT 11/07 A3017 RMK A01 T01050065  RH  077%=      5-min Rain = 0
KTA1 060852Z 16002KT 11/07 A3017 RMK A01 T01050067  RH  077%=      5-min Rain = 0
KTA1 060853Z 16002KT 11/07 A3017 RMK A01 T01060067  RH  077%=      5-min Rain = 0
KTA1 060854Z 16002KT 11/07 A3017 RMK A01 T01060067  RH  077%=      5-min Rain = 0
KTA1 060855Z 16002KT 11/07 A3017 RMK A01 T01070067  RH  076%=      5-min Rain = 0
KTA1 060856Z 16002KT 11/07 A3017 RMK A01 T01070067  RH  076%=      5-min Rain = 0
KTA1 060857Z 16002KT 11/07 A3017 RMK A01 T01070067  RH  076%=      5-min Rain = 0
KTA1 060858Z 16002KT 11/07 A3017 RMK A01 T01080067  RH  076%=      5-min Rain = 0
KTA1 060859Z 16002KT 11/07 A3017 RMK A01 T01080067  RH  076%=      5-min Rain = 0
KTA1 060900Z 16002KT 11/07 A3017 RMK A01 T01080067  RH  075%=      5-min Rain = 0
KTA1 060901Z 16002KT 11/07 A3017 RMK A01 T01080065  RH  075%=      5-min Rain = 0
KTA1 060902Z 16003KT 11/06 A3017 RMK A01 T01080064  RH  074%=      5-min Rain = 0
KTA1 060903Z 17002KT 11/07 A3017 RMK A01 T01080066  RH  075%=      5-min Rain = 0
KTA1 060904Z 17002KT 11/07 A3017 RMK A01 T01080066  RH  075%=      5-min Rain = 0
KTA1 060905Z 18002KT 11/07 A3017 RMK A01 T01090066  RH  075%=      5-min Rain = 0
KTA1 060906Z 18002KT 11/07 A3017 RMK A01 T01090067  RH  075%=      5-min Rain = 0
KTA1 060907Z 18002KT 11/07 A3017 RMK A01 T01100068  RH  076%=      5-min Rain = 0
KTA1 060908Z 18003KT 11/07 A3017 RMK A01 T01100070  RH  076%=      5-min Rain = 0
KTA1 060909Z 18003KT 11/07 A3017 RMK A01 T01110070  RH  076%=      5-min Rain = 0
KTA1 060910Z 17003KT 11/07 A3017 RMK A01 T01120069  RH  075%=      5-min Rain = 0
KTA1 060911Z 18003KT 11/07 A3017 RMK A01 T01120069  RH  075%=      5-min Rain = 0
KTA1 060912Z 17003KT 11/07 A3017 RMK A01 T01130069  RH  075%=      5-min Rain = 0
KTA1 060913Z 17003KT 11/07 A3017 RMK A01 T01130070  RH  075%=      5-min Rain = 0
KTA1 060914Z 17003KT 11/07 A3017 RMK A01 T01140070  RH  075%=      5-min Rain = 0
KTA1 060915Z 17003KT 11/07 A3017 RMK A01 T01140070  RH  074%=      5-min Rain = 0
KTA1 060916Z 17003KT 12/07 A3017 RMK A01 T01150072  RH  075%=      5-min Rain = 0
KTA1 060917Z 17003KT 12/07 A3017 RMK A01 T01150072  RH  075%=      5-min Rain = 0
KTA1 060918Z 18003KT 12/07 A3017 RMK A01 T01160072  RH  074%=      5-min Rain = 0
KTA1 060919Z 18003KT 12/07 A3017 RMK A01 T01170071  RH  074%=      5-min Rain = 0
KTA1 060920Z 18003KT 12/07 A3017 RMK A01 T01170072  RH  074%=      5-min Rain = 0
KTA1 060921Z 18003KT 12/07 A3017 RMK A01 T01180073  RH  074%=      5-min Rain = 0
KTA1 060922Z 18003KT 12/07 A3017 RMK A01 T01190073  RH  074%=      5-min Rain = 0
KTA1 060923Z 18003KT 12/07 A3017 RMK A01 T01190074  RH  074%=      5-min Rain = 0
KTA1 060924Z 17004KT 12/08 A3017 RMK A01 T01200075  RH  074%=      5-min Rain = 0
KTA1 060925Z 18003KT 12/08 A3017 RMK A01 T01210076  RH  074%=      5-min Rain = 0
KTA1 060926Z 17003KT 12/08 A3017 RMK A01 T01210076  RH  074%=      5-min Rain = 0
KTA1 060927Z 17003KT 12/08 A3017 RMK A01 T01220076  RH  073%=      5-min Rain = 0
KTA1 060928Z 17003KT 12/08 A3017 RMK A01 T01220076  RH  073%=      5-min Rain = 0
KTA1 060929Z 17003KT 12/08 A3017 RMK A01 T01230076  RH  073%=      5-min Rain = 0
KTA1 060930Z 18003KT 12/08 A3017 RMK A01 T01230076  RH  073%=      5-min Rain = 0
KTA1 060931Z 17003KT 12/08 A3017 RMK A01 T01240077  RH  073%=      5-min Rain = 0
KTA1 060932Z 17003KT 12/08 A3017 RMK A01 T01230077  RH  073%=      5-min Rain = 0
KTA1 060933Z 16003KT 12/08 A3017 RMK A01 T01240077  RH  073%=      5-min Rain = 0
KTA1 060934Z 16002KT 12/08 A3017 RMK A01 T01240077  RH  073%=      5-min Rain = 0
KTA1 060935Z 16003KT 13/08 A3017 RMK A01 T01250078  RH  073%=      5-min Rain = 0
KTA1 060936Z 16003KT 13/08 A3017 RMK A01 T01250079  RH  073%=      5-min Rain = 0
KTA1 060937Z 16002KT 13/08 A3017 RMK A01 T01260080  RH  074%=      5-min Rain = 0
KTA1 060938Z 16003KT 13/08 A3017 RMK A01 T01260080  RH  074%=      5-min Rain = 0
KTA1 060939Z 16003KT 13/08 A3017 RMK A01 T01270082  RH  074%=      5-min Rain = 0
KTA1 060940Z 16003KT 13/08 A3017 RMK A01 T01270082  RH  074%=      5-min Rain = 0
KTA1 060941Z 16003KT 13/08 A3017 RMK A01 T01280083  RH  074%=      5-min Rain = 0
KTA1 060942Z 15002KT 13/08 A3017 RMK A01 T01280082  RH  074%=      5-min Rain = 0
KTA1 060943Z 15002KT 13/08 A3017 RMK A01 T01280082  RH  073%=      5-min Rain = 0
KTA1 060944Z 15002KT 13/08 A3017 RMK A01 T01280081  RH  073%=      5-min Rain = 0
KTA1 060945Z 14002KT 13/08 A3017 RMK A01 T01280081  RH  073%=      5-min Rain = 0
KTA1 060946Z 14002KT 13/08 A3017 RMK A01 T01280080  RH  073%=      5-min Rain = 0
KTA1 060947Z 14003KT 13/08 A3017 RMK A01 T01280080  RH  073%=      5-min Rain = 0
KTA1 060948Z 14002KT 13/08 A3017 RMK A01 T01280080  RH  073%=      5-min Rain = 0
KTA1 060949Z 14003KT 13/08 A3017 RMK A01 T01280080  RH  073%=      5-min Rain = 0
KTA1 060950Z 14003KT 13/08 A3017 RMK A01 T01270079  RH  073%=      5-min Rain = 0
KTA1 060951Z 13003KT 13/08 A3017 RMK A01 T01270079  RH  073%=      5-min Rain = 0
KTA1 060952Z 14003KT 13/08 A3017 RMK A01 T01260078  RH  072%=      5-min Rain = 0
KTA1 060953Z 14003KT 13/08 A3017 RMK A01 T01260077  RH  072%=      5-min Rain = 0
KTA1 060954Z 14003KT 13/08 A3017 RMK A01 T01250076  RH  072%=      5-min Rain = 0
KTA1 060955Z 13003KT 13/08 A3016 RMK A01 T01250075  RH  072%=      5-min Rain = 0
KTA1 060956Z 12003KT 12/08 A3016 RMK A01 T01240075  RH  072%=      5-min Rain = 0
KTA1 060957Z 12003KT 12/07 A3016 RMK A01 T01230074  RH  072%=      5-min Rain = 0
KTA1 060958Z 12002KT 12/07 A3016 RMK A01 T01230073  RH  071%=      5-min Rain = 0
KTA1 060959Z 12003KT 12/07 A3016 RMK A01 T01220072  RH  071%=      5-min Rain = 0
KTA1 061000Z 12003KT 12/07 A3016 RMK A01 T01210071  RH  071%=      5-min Rain = 0
KTA1 061001Z 12003KT 12/07 A3016 RMK A01 T01210070  RH  071%=      5-min Rain = 0
KTA1 061002Z 12003KT 12/07 A3016 RMK A01 T01200069  RH  071%=      5-min Rain = 0
KTA1 061003Z 12002KT 12/07 A3016 RMK A01 T01200069  RH  071%=      5-min Rain = 0
KTA1 061004Z 12002KT 12/07 A3016 RMK A01 T01200069  RH  071%=      5-min Rain = 0
KTA1 061005Z 12002KT 12/07 A3016 RMK A01 T01190068  RH  071%=      5-min Rain = 0
KTA1 061006Z 13002KT 12/07 A3016 RMK A01 T01190068  RH  071%=      5-min Rain = 0
KTA1 061007Z 13002KT 12/07 A3017 RMK A01 T01190068  RH  071%=      5-min Rain = 0
KTA1 061008Z 13002KT 12/07 A3017 RMK A01 T01180068  RH  071%=      5-min Rain = 0
KTA1 061009Z 13002KT 12/07 A3017 RMK A01 T01180068  RH  071%=      5-min Rain = 0
KTA1 061010Z 13002KT 12/07 A3017 RMK A01 T01180069  RH  072%=      5-min Rain = 0
KTA1 061011Z 13002KT 12/07 A3017 RMK A01 T01180069  RH  072%=      5-min Rain = 0
KTA1 061012Z 14002KT 12/07 A3017 RMK A01 T01180070  RH  072%=      5-min Rain = 0
KTA1 061013Z 14002KT 12/07 A3017 RMK A01 T01180070  RH  072%=      5-min Rain = 0
KTA1 061014Z 14002KT 12/07 A3017 RMK A01 T01180070  RH  072%=      5-min Rain = 0
KTA1 061015Z 15002KT 12/07 A3017 RMK A01 T01180070  RH  072%=      5-min Rain = 0
KTA1 061016Z 15002KT 12/07 A3017 RMK A01 T01180070  RH  072%=      5-min Rain = 0
KTA1 061017Z 15002KT 12/07 A3017 RMK A01 T01190071  RH  072%=      5-min Rain = 0
KTA1 061018Z 15002KT 12/07 A3017 RMK A01 T01190073  RH  073%=      5-min Rain = 0
KTA1 061019Z 15002KT 12/08 A3017 RMK A01 T01200075  RH  074%=      5-min Rain = 0
KTA1 061020Z 15003KT 12/08 A3017 RMK A01 T01210075  RH  074%=      5-min Rain = 0
KTA1 061021Z 15003KT 12/08 A3017 RMK A01 T01220077  RH  074%=      5-min Rain = 0
KTA1 061022Z 15002KT 12/08 A3017 RMK A01 T01220077  RH  074%=      5-min Rain = 0
KTA1 061023Z 15002KT 12/08 A3017 RMK A01 T01230079  RH  074%=      5-min Rain = 0
KTA1 061024Z 15002KT 12/08 A3017 RMK A01 T01240079  RH  074%=      5-min Rain = 0
KTA1 061025Z 15002KT 12/08 A3017 RMK A01 T01240079  RH  074%=      5-min Rain = 0
KTA1 061026Z 15002KT 13/08 A3017 RMK A01 T01250080  RH  074%=      5-min Rain = 0
KTA1 061027Z 14002KT 13/08 A3017 RMK A01 T01250080  RH  074%=      5-min Rain = 0
KTA1 061028Z 13002KT 13/08 A3017 RMK A01 T01260081  RH  074%=      5-min Rain = 0
KTA1 061029Z 12002KT 13/08 A3017 RMK A01 T01260082  RH  074%=      5-min Rain = 0
KTA1 061030Z 12002KT 13/08 A3017 RMK A01 T01270083  RH  074%=      5-min Rain = 0
KTA1 061031Z 12002KT 13/08 A3017 RMK A01 T01280084  RH  074%=      5-min Rain = 0
KTA1 061032Z 12002KT 13/08 A3017 RMK A01 T01280083  RH  074%=      5-min Rain = 0
KTA1 061033Z 12002KT 13/08 A3017 RMK A01 T01290083  RH  074%=      5-min Rain = 0
KTA1 061034Z 12002KT 13/08 A3017 RMK A01 T01290084  RH  074%=      5-min Rain = 0
KTA1 061035Z 12002KT 13/09 A3017 RMK A01 T01290085  RH  074%=      5-min Rain = 0
KTA1 061036Z 12002KT 13/09 A3017 RMK A01 T01290085  RH  074%=      5-min Rain = 0
KTA1 061037Z 11002KT 13/09 A3017 RMK A01 T01300085  RH  074%=      5-min Rain = 0
KTA1 061038Z 11002KT 13/09 A3017 RMK A01 T01310087  RH  075%=      5-min Rain = 0
KTA1 061039Z 11002KT 13/09 A3017 RMK A01 T01310088  RH  075%=      5-min Rain = 0
KTA1 061040Z 10003KT 13/09 A3017 RMK A01 T01320089  RH  075%=      5-min Rain = 0
KTA1 061041Z 11003KT 13/09 A3017 RMK A01 T01330090  RH  075%=      5-min Rain = 0
KTA1 061042Z 11002KT 13/09 A3017 RMK A01 T01330091  RH  075%=      5-min Rain = 0
KTA1 061043Z 10002KT 13/09 A3017 RMK A01 T01330091  RH  075%=      5-min Rain = 0
KTA1 061044Z 11000KT 13/09 A3017 RMK A01 T01340091  RH  075%=      5-min Rain = 0
KTA1 061045Z 00000KT 13/09 A3017 RMK A01 T01340092  RH  076%=      5-min Rain = 0
KTA1 061046Z 27002KT 14/09 A3017 RMK A01 T01350091  RH  075%=      5-min Rain = 0
KTA1 061047Z 27004KT 13/09 A3018 RMK A01 T01340089  RH  074%=      5-min Rain = 0
KTA1 061048Z 27004KT 14/09 A3018 RMK A01 T01350090  RH  074%=      5-min Rain = 0
KTA1 061049Z 27004KT 14/09 A3018 RMK A01 T01350092  RH  075%=      5-min Rain = 0
KTA1 061050Z 27004KT 14/09 A3018 RMK A01 T01360093  RH  075%=      5-min Rain = 0
KTA1 061051Z 27003KT 14/09 A3018 RMK A01 T01360094  RH  076%=      5-min Rain = 0
KTA1 061052Z 26003KT 14/10 A3018 RMK A01 T01370095  RH  076%=      5-min Rain = 0
KTA1 061053Z 25003KT 14/10 A3018 RMK A01 T01380096  RH  076%=      5-min Rain = 0
KTA1 061054Z 25003KT 14/10 A3018 RMK A01 T01380097  RH  076%=      5-min Rain = 0
KTA1 061055Z 25003KT 14/10 A3018 RMK A01 T01390099  RH  077%=      5-min Rain = 0
KTA1 061056Z 24002KT 14/10 A3018 RMK A01 T01390100  RH  077%=      5-min Rain = 0
KTA1 061057Z 25002KT 14/10 A3018 RMK A01 T01390100  RH  077%=      5-min Rain = 0
KTA1 061058Z 25002KT 14/10 A3018 RMK A01 T01400100  RH  077%=      5-min Rain = 0
KTA1 061059Z 25002KT 14/10 A3018 RMK A01 T01400100  RH  077%=      5-min Rain = 0
KTA1 061100Z 25002KT 14/10 A3018 RMK A01 T01400100  RH  077%=      5-min Rain = 0
KTA1 061101Z 25002KT 14/10 A3018 RMK A01 T01400100  RH  077%=      5-min Rain = 0
KTA1 061102Z 24001KT 14/10 A3018 RMK A01 T01410100  RH  077%=      5-min Rain = 0
KTA1 061103Z 24001KT 14/10 A3018 RMK A01 T01400100  RH  076%=      5-min Rain = 0
KTA1 061104Z 25001KT 14/10 A3018 RMK A01 T01410100  RH  076%=      5-min Rain = 0
KTA1 061105Z 00000KT 14/10 A3018 RMK A01 T01410100  RH  077%=      5-min Rain = 0
KTA1 061106Z 00000KT 14/10 A3018 RMK A01 T01400100  RH  077%=      5-min Rain = 0
KTA1 061107Z 00000KT 14/10 A3018 RMK A01 T01400100  RH  077%=      5-min Rain = 0
KTA1 061108Z 00000KT 14/10 A3018 RMK A01 T01410100  RH  076%=      5-min Rain = 0
KTA1 061109Z 00000KT 14/10 A3018 RMK A01 T01410099  RH  076%=      5-min Rain = 0
KTA1 061110Z 00000KT 14/10 A3018 RMK A01 T01410099  RH  076%=      5-min Rain = 0
KTA1 061111Z 00000KT 14/10 A3018 RMK A01 T01410098  RH  076%=      5-min Rain = 0
KTA1 061112Z 00000KT 14/10 A3018 RMK A01 T01410097  RH  075%=      5-min Rain = 0
KTA1 061113Z 00000KT 14/10 A3018 RMK A01 T01410096  RH  074%=      5-min Rain = 0
KTA1 061114Z 00000KT 14/09 A3018 RMK A01 T01400094  RH  074%=      5-min Rain = 0
KTA1 061115Z 00000KT 14/09 A3018 RMK A01 T01400093  RH  073%=      5-min Rain = 0
KTA1 061116Z 00000KT 14/09 A3018 RMK A01 T01400092  RH  073%=      5-min Rain = 0
KTA1 061117Z 00000KT 14/09 A3018 RMK A01 T01390091  RH  073%=      5-min Rain = 0
KTA1 061118Z 00000KT 14/09 A3019 RMK A01 T01390091  RH  073%=      5-min Rain = 0
KTA1 061119Z 00000KT 14/09 A3019 RMK A01 T01390092  RH  073%=      5-min Rain = 0
KTA1 061120Z 00000KT 14/09 A3019 RMK A01 T01390092  RH  073%=      5-min Rain = 0
KTA1 061121Z 00000KT 14/09 A3019 RMK A01 T01390091  RH  073%=      5-min Rain = 0
KTA1 061122Z 00000KT 14/09 A3019 RMK A01 T01390092  RH  073%=      5-min Rain = 0
KTA1 061123Z 00000KT 14/09 A3019 RMK A01 T01390091  RH  073%=      5-min Rain = 0
KTA1 061124Z 00000KT 14/09 A3019 RMK A01 T01390091  RH  073%=      5-min Rain = 0
KTA1 061125Z 32002KT 14/09 A3019 RMK A01 T01390091  RH  073%=      5-min Rain = 0
KTA1 061126Z 32003KT 14/09 A3019 RMK A01 T01390092  RH  073%=      5-min Rain = 0
KTA1 061127Z 33003KT 14/09 A3019 RMK A01 T01390093  RH  074%=      5-min Rain = 0
KTA1 061128Z 33003KT 14/09 A3019 RMK A01 T01390093  RH  074%=      5-min Rain = 0
KTA1 061129Z 32004KT 14/09 A3019 RMK A01 T01390093  RH  073%=      5-min Rain = 0
KTA1 061130Z 32004KT 14/09 A3019 RMK A01 T01390090  RH  072%=      5-min Rain = 0
KTA1 061131Z 32005KT 14/09 A3019 RMK A01 T01390089  RH  071%=      5-min Rain = 0
KTA1 061132Z 32004KT 14/09 A3019 RMK A01 T01390089  RH  071%=      5-min Rain = 0
KTA1 061133Z 32004KT 14/09 A3019 RMK A01 T01390089  RH  071%=      5-min Rain = 0
KTA1 061134Z 33003KT 14/09 A3019 RMK A01 T01390089  RH  072%=      5-min Rain = 0
KTA1 061135Z 32004KT 14/09 A3019 RMK A01 T01390088  RH  072%=      5-min Rain = 0
KTA1 061136Z 32004KT 14/09 A3019 RMK A01 T01390088  RH  072%=      5-min Rain = 0
KTA1 061137Z 32004KT 14/09 A3019 RMK A01 T01390088  RH  071%=      5-min Rain = 0
KTA1 061138Z 33003KT 14/09 A3019 RMK A01 T01390088  RH  071%=      5-min Rain = 0
KTA1 061139Z 34003KT 14/09 A3019 RMK A01 T01390088  RH  071%=      5-min Rain = 0
KTA1 061140Z 35003KT 14/09 A3019 RMK A01 T01390088  RH  071%=      5-min Rain = 0
KTA1 061141Z 36003KT 14/09 A3019 RMK A01 T01390088  RH  071%=      5-min Rain = 0
KTA1 061142Z 00003KT 14/09 A3019 RMK A01 T01390088  RH  071%=      5-min Rain = 0
KTA1 061143Z 01002KT 14/09 A3019 RMK A01 T01390088  RH  071%=      5-min Rain = 0
KTA1 061144Z 02002KT 14/09 A3019 RMK A01 T01390088  RH  071%=      5-min Rain = 0
KTA1 061145Z 01002KT 14/09 A3019 RMK A01 T01390087  RH  071%=      5-min Rain = 0
KTA1 061146Z 02002KT 14/09 A3019 RMK A01 T01390087  RH  071%=      5-min Rain = 0
KTA1 061147Z 02002KT 14/09 A3019 RMK A01 T01390086  RH  070%=      5-min Rain = 0
KTA1 061148Z 02002KT 14/09 A3019 RMK A01 T01390086  RH  070%=      5-min Rain = 0
KTA1 061149Z 03003KT 14/09 A3019 RMK A01 T01390085  RH  070%=      5-min Rain = 0
KTA1 061150Z 03003KT 14/09 A3019 RMK A01 T01390085  RH  070%=      5-min Rain = 0
KTA1 061151Z 03003KT 14/09 A3019 RMK A01 T01390085  RH  070%=      5-min Rain = 0
KTA1 061152Z 03002KT 14/09 A3019 RMK A01 T01390085  RH  070%=      5-min Rain = 0
KTA1 061153Z 03002KT 14/08 A3019 RMK A01 T01380084  RH  070%=      5-min Rain = 0
KTA1 061154Z 03002KT 14/08 A3019 RMK A01 T01390084  RH  070%=      5-min Rain = 0
KTA1 061155Z 04002KT 14/08 A3019 RMK A01 T01380084  RH  070%=      5-min Rain = 0
KTA1 061156Z 06002KT 14/09 A3019 RMK A01 T01390085  RH  070%=      5-min Rain = 0
KTA1 061157Z 08002KT 14/09 A3019 RMK A01 T01390086  RH  070%=      5-min Rain = 0
KTA1 061158Z 07002KT 14/09 A3019 RMK A01 T01390086  RH  070%=      5-min Rain = 0
KTA1 061159Z 07003KT 14/09 A3019 RMK A01 T01390086  RH  070%=      5-min Rain = 0
KTA1 061200Z 07003KT 14/09 A3019 RMK A01 T01390086  RH  070%=      5-min Rain = 0
KTA1 061201Z 07003KT 14/09 A3019 RMK A01 T01390086  RH  070%=      5-min Rain = 0
KTA1 061202Z 07003KT 14/09 A3018 RMK A01 T01390086  RH  070%=      5-min Rain = 0
KTA1 061203Z 07003KT 14/09 A3018 RMK A01 T01390086  RH  070%=      5-min Rain = 0
KTA1 061204Z 07004KT 14/09 A3018 RMK A01 T01400087  RH  070%=      5-min Rain = 0
KTA1 061205Z 08004KT 14/09 A3018 RMK A01 T01400087  RH  071%=      5-min Rain = 0
KTA1 061206Z 08003KT 14/09 A3018 RMK A01 T01400088  RH  071%=      5-min Rain = 0
KTA1 061207Z 08004KT 14/09 A3018 RMK A01 T01400088  RH  071%=      5-min Rain = 0
KTA1 061208Z 08004KT 14/09 A3018 RMK A01 T01400089  RH  071%=      5-min Rain = 0
KTA1 061209Z 08003KT 14/09 A3018 RMK A01 T01410089  RH  071%=      5-min Rain = 0
KTA1 061210Z 08003KT 14/09 A3018 RMK A01 T01410090  RH  071%=      5-min Rain = 0
KTA1 061211Z 07003KT 14/09 A3018 RMK A01 T01410091  RH  072%=      5-min Rain = 0
KTA1 061212Z 07003KT 14/09 A3018 RMK A01 T01410090  RH  072%=      5-min Rain = 0
KTA1 061213Z 08002KT 14/09 A3018 RMK A01 T01420091  RH  072%=      5-min Rain = 0
KTA1 061214Z 07002KT 14/09 A3018 RMK A01 T01420091  RH  072%=      5-min Rain = 0
KTA1 061215Z 06002KT 14/09 A3018 RMK A01 T01420091  RH  072%=      5-min Rain = 0
KTA1 061216Z 06003KT 14/09 A3018 RMK A01 T01420092  RH  072%=      5-min Rain = 0
KTA1 061217Z 06003KT 14/09 A3018 RMK A01 T01420093  RH  072%=      5-min Rain = 0
KTA1 061218Z 05003KT 14/09 A3018 RMK A01 T01430094  RH  073%=      5-min Rain = 0
KTA1 061219Z 05003KT 14/10 A3018 RMK A01 T01430095  RH  073%=      5-min Rain = 0
KTA1 061220Z 05003KT 14/10 A3018 RMK A01 T01430095  RH  073%=      5-min Rain = 0
KTA1 061221Z 05003KT 14/10 A3018 RMK A01 T01430095  RH  073%=      5-min Rain = 0
KTA1 061222Z 04003KT 14/10 A3018 RMK A01 T01430095  RH  073%=      5-min Rain = 0
KTA1 061223Z 03003KT 14/10 A3018 RMK A01 T01430095  RH  073%=      5-min Rain = 0
KTA1 061224Z 03003KT 14/10 A3018 RMK A01 T01430095  RH  073%=      5-min Rain = 0
KTA1 061225Z 03003KT 14/10 A3018 RMK A01 T01440096  RH  073%=      5-min Rain = 0
KTA1 061226Z 03003KT 14/10 A3018 RMK A01 T01440096  RH  073%=      5-min Rain = 0
KTA1 061227Z 04003KT 14/10 A3018 RMK A01 T01440097  RH  073%=      5-min Rain = 0
KTA1 061228Z 04003KT 14/10 A3018 RMK A01 T01440097  RH  073%=      5-min Rain = 0
KTA1 061229Z 04003KT 14/10 A3018 RMK A01 T01440098  RH  074%=      5-min Rain = 0
KTA1 061230Z 05003KT 14/10 A3018 RMK A01 T01440098  RH  074%=      5-min Rain = 0
KTA1 061231Z 06003KT 15/10 A3018 RMK A01 T01450098  RH  074%=      5-min Rain = 0
KTA1 061232Z 06003KT 15/10 A3018 RMK A01 T01450098  RH  074%=      5-min Rain = 0
KTA1 061233Z 07003KT 15/10 A3018 RMK A01 T01450099  RH  074%=      5-min Rain = 0
KTA1 061234Z 08003KT 15/10 A3018 RMK A01 T01450100  RH  074%=      5-min Rain = 0
KTA1 061235Z 07003KT 15/10 A3018 RMK A01 T01450100  RH  074%=      5-min Rain = 0
KTA1 061236Z 08004KT 15/10 A3018 RMK A01 T01460102  RH  075%=      5-min Rain = 0
KTA1 061237Z 08003KT 15/10 A3018 RMK A01 T01460103  RH  075%=      5-min Rain = 0
KTA1 061238Z 07003KT 15/11 A3018 RMK A01 T01470105  RH  076%=      5-min Rain = 0
KTA1 061239Z 07003KT 15/11 A3018 RMK A01 T01470105  RH  076%=      5-min Rain = 0
KTA1 061240Z 07003KT 15/11 A3018 RMK A01 T01470106  RH  076%=      5-min Rain = 0
KTA1 061241Z 07003KT 15/11 A3018 RMK A01 T01470106  RH  076%=      5-min Rain = 0
KTA1 061242Z 07003KT 15/11 A3018 RMK A01 T01480106  RH  076%=      5-min Rain = 0
KTA1 061243Z 07003KT 15/11 A3018 RMK A01 T01480106  RH  076%=      5-min Rain = 0
KTA1 061244Z 07003KT 15/11 A3018 RMK A01 T01480106  RH  076%=      5-min Rain = 0
KTA1 061245Z 06003KT 15/11 A3018 RMK A01 T01480106  RH  076%=      5-min Rain = 0
KTA1 061246Z 07003KT 15/11 A3018 RMK A01 T01480106  RH  076%=      5-min Rain = 0
KTA1 061247Z 07003KT 15/11 A3018 RMK A01 T01480106  RH  076%=      5-min Rain = 0
KTA1 061248Z 07003KT 15/11 A3018 RMK A01 T01480106  RH  076%=      5-min Rain = 0
KTA1 061249Z 07003KT 15/11 A3018 RMK A01 T01480105  RH  075%=      5-min Rain = 0
KTA1 061250Z 07003KT 15/11 A3018 RMK A01 T01480105  RH  075%=      5-min Rain = 0
KTA1 061251Z 08002KT 15/11 A3018 RMK A01 T01480105  RH  075%=      5-min Rain = 0
KTA1 061252Z 08002KT 15/11 A3018 RMK A01 T01480105  RH  075%=      5-min Rain = 0
KTA1 061253Z 08002KT 15/11 A3018 RMK A01 T01490105  RH  075%=      5-min Rain = 0
KTA1 061254Z 08002KT 15/11 A3018 RMK A01 T01490105  RH  075%=      5-min Rain = 0
KTA1 061255Z 08001KT 15/11 A3018 RMK A01 T01490105  RH  075%=      5-min Rain = 0
KTA1 061256Z 08001KT 15/11 A3018 RMK A01 T01490105  RH  075%=      5-min Rain = 0
KTA1 061257Z 08000KT 15/11 A3018 RMK A01 T01480105  RH  075%=      5-min Rain = 0
KTA1 061258Z 00000KT 15/11 A3018 RMK A01 T01490105  RH  075%=      5-min Rain = 0
KTA1 061259Z 00000KT 15/11 A3018 RMK A01 T01490105  RH  075%=      5-min Rain = 0
KTA1 061300Z 00000KT 15/10 A3018 RMK A01 T01490104  RH  075%=      5-min Rain = 0
KTA1 061301Z 00000KT 15/10 A3018 RMK A01 T01480104  RH  075%=      5-min Rain = 0
KTA1 061302Z 00000KT 15/11 A3018 RMK A01 T01490105  RH  075%=      5-min Rain = 0
KTA1 061303Z 00000KT 15/11 A3018 RMK A01 T01490105  RH  075%=      5-min Rain = 0
KTA1 061304Z 00000KT 15/11 A3018 RMK A01 T01490105  RH  075%=      5-min Rain = 0
KTA1 061305Z 00000KT 15/11 A3018 RMK A01 T01490105  RH  075%=      5-min Rain = 0
KTA1 061306Z 00000KT 15/11 A3018 RMK A01 T01490105  RH  075%=      5-min Rain = 0
KTA1 061307Z 00000KT 15/11 A3018 RMK A01 T01490105  RH  075%=      5-min Rain = 0
KTA1 061308Z 00000KT 15/11 A3018 RMK A01 T01490106  RH  075%=      5-min Rain = 0
KTA1 061309Z 00000KT 15/11 A3018 RMK A01 T01490106  RH  075%=      5-min Rain = 0
KTA1 061310Z 00000KT 15/11 A3018 RMK A01 T01500107  RH  076%=      5-min Rain = 0
KTA1 061311Z 00000KT 15/11 A3018 RMK A01 T01500107  RH  076%=      5-min Rain = 0
KTA1 061312Z 00000KT 15/11 A3018 RMK A01 T01500108  RH  076%=      5-min Rain = 0
KTA1 061313Z 00000KT 15/11 A3018 RMK A01 T01500108  RH  076%=      5-min Rain = 0
KTA1 061314Z 00000KT 15/11 A3018 RMK A01 T01500107  RH  076%=      5-min Rain = 0
KTA1 061315Z 00000KT 15/11 A3018 RMK A01 T01500108  RH  076%=      5-min Rain = 0
KTA1 061316Z 00000KT 15/11 A3018 RMK A01 T01500107  RH  075%=      5-min Rain = 0
KTA1 061317Z 00000KT 15/11 A3018 RMK A01 T01500108  RH  076%=      5-min Rain = 0
KTA1 061318Z 00000KT 15/11 A3018 RMK A01 T01500107  RH  075%=      5-min Rain = 0
KTA1 061319Z 00000KT 15/11 A3018 RMK A01 T01510108  RH  075%=      5-min Rain = 0
KTA1 061320Z 08003KT 15/11 A3018 RMK A01 T01510108  RH  075%=      5-min Rain = 0
KTA1 061321Z 08003KT 15/11 A3018 RMK A01 T01510108  RH  076%=      5-min Rain = 0
KTA1 061322Z 08003KT 15/11 A3018 RMK A01 T01510108  RH  076%=      5-min Rain = 0
KTA1 061323Z 08004KT 15/11 A3018 RMK A01 T01510109  RH  076%=      5-min Rain = 0
KTA1 061324Z 08004KT 15/11 A3018 RMK A01 T01510109  RH  076%=      5-min Rain = 0
KTA1 061325Z 08004KT 15/11 A3018 RMK A01 T01510109  RH  076%=      5-min Rain = 0
KTA1 061326Z 08003KT 15/11 A3018 RMK A01 T01510108  RH  075%=      5-min Rain = 0
KTA1 061327Z 08004KT 15/11 A3018 RMK A01 T01510108  RH  075%=      5-min Rain = 0
KTA1 061328Z 08003KT 15/11 A3018 RMK A01 T01510108  RH  075%=      5-min Rain = 0
KTA1 061329Z 08003KT 15/11 A3018 RMK A01 T01510108  RH  075%=      5-min Rain = 0
KTA1 061330Z 08003KT 15/11 A3018 RMK A01 T01510108  RH  075%=      5-min Rain = 0
KTA1 061331Z 08004KT 15/11 A3018 RMK A01 T01510109  RH  076%=      5-min Rain = 0
KTA1 061332Z 09003KT 15/11 A3018 RMK A01 T01510109  RH  076%=      5-min Rain = 0
KTA1 061333Z 09004KT 15/11 A3018 RMK A01 T01510109  RH  076%=      5-min Rain = 0
KTA1 061334Z 09003KT 15/11 A3018 RMK A01 T01510109  RH  076%=      5-min Rain = 0
KTA1 061335Z 10003KT 15/11 A3018 RMK A01 T01520110  RH  076%=      5-min Rain = 0
KTA1 061336Z 10003KT 15/11 A3018 RMK A01 T01520110  RH  076%=      5-min Rain = 0
KTA1 061337Z 11003KT 15/11 A3017 RMK A01 T01520111  RH  076%=      5-min Rain = 0
KTA1 061338Z 11004KT 15/11 A3018 RMK A01 T01520112  RH  077%=      5-min Rain = 0
KTA1 061339Z 11004KT 15/12 A3018 RMK A01 T01530115  RH  078%=      5-min Rain = 0
KTA1 061340Z 12004KT 15/12 A3018 RMK A01 T01540119  RH  080%=      5-min Rain = 0
KTA1 061341Z 12004KT 16/13 A3018 RMK A01 T01550125  RH  082%=      5-min Rain = 0
KTA1 061342Z 13005KT 16/13 A3018 RMK A01 T01570130  RH  084%=      5-min Rain = 0
KTA1 061343Z 13005KT 16/13 A3018 RMK A01 T01590134  RH  085%=      5-min Rain = 0
KTA1 061344Z 13005KT 16/14 A3018 RMK A01 T01600135  RH  085%=      5-min Rain = 0
KTA1 061345Z 13006KT 16/14 A3018 RMK A01 T01610135  RH  085%=      5-min Rain = 0
KTA1 061346Z 13006KT 16/14 A3018 RMK A01 T01620137  RH  085%=      5-min Rain = 0
KTA1 061347Z 13005KT 16/14 A3018 RMK A01 T01620137  RH  085%=      5-min Rain = 0
KTA1 061348Z 13005KT 16/14 A3018 RMK A01 T01630137  RH  085%=      5-min Rain = 0
KTA1 061349Z 14006KT 16/14 A3018 RMK A01 T01630136  RH  084%=      5-min Rain = 0
KTA1 061350Z 14006KT 16/14 A3018 RMK A01 T01640137  RH  084%=      5-min Rain = 0
KTA1 061351Z 14005KT 16/14 A3018 RMK A01 T01640137  RH  084%=      5-min Rain = 0
KTA1 061352Z 13006KT 16/14 A3018 RMK A01 T01640138  RH  085%=      5-min Rain = 0
KTA1 061353Z 13004KT 17/14 A3018 RMK A01 T01650139  RH  085%=      5-min Rain = 0
KTA1 061354Z 14005KT 17/14 A3018 RMK A01 T01660140  RH  085%=      5-min Rain = 0
KTA1 061355Z 14005KT 17/14 A3018 RMK A01 T01660141  RH  085%=      5-min Rain = 0
KTA1 061356Z 13005KT 17/14 A3018 RMK A01 T01670142  RH  085%=      5-min Rain = 0
KTA1 061357Z 13006KT 17/14 A3018 RMK A01 T01680144  RH  086%=      5-min Rain = 0
KTA1 061358Z 13005KT 17/15 A3018 RMK A01 T01690146  RH  086%=      5-min Rain = 0
KTA1 061359Z 13007KT 17/15 A3018 RMK A01 T01700146  RH  086%=      5-min Rain = 0
KTA1 061400Z 14006KT 17/15 A3018 RMK A01 T01700147  RH  086%=      5-min Rain = 0
KTA1 061401Z 13005KT 17/15 A3018 RMK A01 T01710147  RH  086%=      5-min Rain = 0
KTA1 061402Z 14005KT 17/15 A3018 RMK A01 T01710148  RH  086%=      5-min Rain = 0
KTA1 061403Z 14006KT 17/15 A3018 RMK A01 T01720148  RH  086%=      5-min Rain = 0
KTA1 061404Z 14007KT 17/15 A3018 RMK A01 T01720149  RH  086%=      5-min Rain = 0
KTA1 061405Z 14006KT 17/15 A3018 RMK A01 T01730149  RH  086%=      5-min Rain = 0
KTA1 061406Z 14007KT 17/15 A3018 RMK A01 T01730150  RH  086%=      5-min Rain = 0
KTA1 061407Z 14007KT 17/15 A3018 RMK A01 T01740150  RH  086%=      5-min Rain = 0
KTA1 061408Z 14008KT 17/15 A3018 RMK A01 T01740150  RH  086%=      5-min Rain = 0
KTA1 061409Z 14007KT 17/15 A3018 RMK A01 T01740151  RH  086%=      5-min Rain = 0
KTA1 061410Z 13006KT 18/15 A3018 RMK A01 T01750151  RH  086%=      5-min Rain = 0
KTA1 061411Z 14007KT 18/15 A3018 RMK A01 T01750151  RH  086%=      5-min Rain = 0
KTA1 061412Z 14006KT 18/15 A3018 RMK A01 T01760152  RH  086%=      5-min Rain = 0
KTA1 061413Z 13007KT 18/15 A3017 RMK A01 T01760152  RH  086%=      5-min Rain = 0
KTA1 061414Z 14008KT 18/15 A3017 RMK A01 T01760153  RH  086%=      5-min Rain = 0
KTA1 061415Z 13008KT 18/15 A3017 RMK A01 T01770154  RH  086%=      5-min Rain = 0
KTA1 061416Z 13007KT 18/16 A3017 RMK A01 T01770155  RH  086%=      5-min Rain = 0
KTA1 061417Z 13008KT 18/16 A3017 RMK A01 T01780155  RH  086%=      5-min Rain = 0
KTA1 061418Z 14008KT 18/16 A3017 RMK A01 T01790156  RH  087%=      5-min Rain = 0
KTA1 061419Z 13007KT 18/16 A3017 RMK A01 T01790156  RH  087%=      5-min Rain = 0
KTA1 061420Z 13008KT 18/16 A3017 RMK A01 T01790156  RH  086%=      5-min Rain = 0
KTA1 061421Z 13007KT 18/16 A3018 RMK A01 T01800157  RH  086%=      5-min Rain = 0
KTA1 061422Z 13006KT 18/16 A3018 RMK A01 T01800157  RH  086%=      5-min Rain = 0
KTA1 061423Z 13006KT 18/16 A3018 RMK A01 T01800156  RH  086%=      5-min Rain = 0
KTA1 061424Z 13006KT 18/16 A3018 RMK A01 T01810157  RH  086%=      5-min Rain = 0
KTA1 061425Z 13008KT 18/16 A3018 RMK A01 T01810156  RH  086%=      5-min Rain = 0
KTA1 061426Z 13007KT 18/16 A3018 RMK A01 T01820157  RH  086%=      5-min Rain = 0
KTA1 061427Z 14007KT 18/16 A3018 RMK A01 T01820157  RH  085%=      5-min Rain = 0
KTA1 061428Z 14007KT 18/16 A3018 RMK A01 T01830158  RH  085%=      5-min Rain = 0
KTA1 061429Z 14008KT 18/16 A3018 RMK A01 T01830158  RH  085%=      5-min Rain = 0
KTA1 061430Z 13008KT 18/16 A3018 RMK A01 T01830158  RH  085%=      5-min Rain = 0
KTA1 061431Z 14006KT 18/16 A3018 RMK A01 T01840158  RH  085%=      5-min Rain = 0
KTA1 061432Z 14008KT 18/16 A3018 RMK A01 T01840159  RH  085%=      5-min Rain = 0
KTA1 061433Z 14007KT 19/16 A3018 RMK A01 T01850159  RH  085%=      5-min Rain = 0
KTA1 061434Z 13006KT 19/16 A3018 RMK A01 T01850159  RH  085%=      5-min Rain = 0
KTA1 061435Z 14009KT 19/16 A3018 RMK A01 T01850159  RH  085%=      5-min Rain = 0
KTA1 061436Z 14007KT 19/16 A3018 RMK A01 T01860160  RH  085%=      5-min Rain = 0
KTA1 061437Z 14008KT 19/16 A3018 RMK A01 T01860160  RH  085%=      5-min Rain = 0
KTA1 061438Z 14009KT 19/16 A3018 RMK A01 T01870161  RH  085%=      5-min Rain = 0
KTA1 061439Z 14009KT 19/16 A3018 RMK A01 T01880162  RH  085%=      5-min Rain = 0
KTA1 061440Z 14007KT 19/16 A3018 RMK A01 T01880162  RH  085%=      5-min Rain = 0
KTA1 061441Z 14009KT 19/16 A3018 RMK A01 T01880162  RH  084%=      5-min Rain = 0
KTA1 061442Z 14008KT 19/16 A3018 RMK A01 T01890162  RH  084%=      5-min Rain = 0
KTA1 061443Z 14007KT 19/16 A3018 RMK A01 T01890162  RH  084%=      5-min Rain = 0
KTA1 061444Z 13009KT 19/16 A3018 RMK A01 T01900163  RH  084%=      5-min Rain = 0
KTA1 061445Z 14007KT 19/16 A3018 RMK A01 T01900163  RH  084%=      5-min Rain = 0
KTA1 061446Z 15007KT 19/16 A3018 RMK A01 T01910162  RH  084%=      5-min Rain = 0
KTA1 061447Z 14008KT 19/16 A3018 RMK A01 T01910163  RH  084%=      5-min Rain = 0
KTA1 061448Z 14009KT 19/16 A3018 RMK A01 T01920163  RH  083%=      5-min Rain = 0
KTA1 061449Z 14008KT 19/16 A3018 RMK A01 T01920163  RH  083%=      5-min Rain = 0
KTA1 061450Z 13009KT 19/16 A3018 RMK A01 T01920163  RH  083%=      5-min Rain = 0
KTA1 061451Z 14009KT 19/16 A3018 RMK A01 T01920163  RH  083%=      5-min Rain = 0
KTA1 061452Z 14010KT 19/16 A3018 RMK A01 T01920163  RH  083%=      5-min Rain = 0
KTA1 061453Z 14010KT 19/16 A3019 RMK A01 T01920163  RH  083%=      5-min Rain = 0
KTA1 061454Z 14009KT 19/16 A3019 RMK A01 T01920163  RH  083%=      5-min Rain = 0
KTA1 061455Z 15010KT 19/16 A3019 RMK A01 T01910162  RH  083%=      5-min Rain = 0
KTA1 061456Z 15009KT 19/16 A3019 RMK A01 T01920163  RH  083%=      5-min Rain = 0
KTA1 061457Z 15009KT 19/16 A3019 RMK A01 T01920163  RH  083%=      5-min Rain = 0
KTA1 061458Z 15007KT 19/16 A3019 RMK A01 T01920163  RH  083%=      5-min Rain = 0
KTA1 061459Z 14008KT 19/16 A3019 RMK A01 T01930163  RH  083%=      5-min Rain = 0
KTA1 061500Z 14008KT 19/16 A3018 RMK A01 T01940164  RH  082%=      5-min Rain = 0
KTA1 061501Z 14009KT 20/16 A3018 RMK A01 T01950164  RH  082%=      5-min Rain = 0
KTA1 061502Z 14009KT 20/16 A3018 RMK A01 T01950164  RH  082%=      5-min Rain = 0
KTA1 061503Z 14009KT 20/16 A3018 RMK A01 T01950164  RH  082%=      5-min Rain = 0
KTA1 061504Z 14009KT 20/16 A3018 RMK A01 T01950164  RH  082%=      5-min Rain = 0
KTA1 061505Z 15010KT 20/17 A3018 RMK A01 T01960165  RH  082%=      5-min Rain = 0
KTA1 061506Z 15011KT 20/17 A3018 RMK A01 T01970165  RH  082%=      5-min Rain = 0
KTA1 061507Z 14007KT 20/17 A3018 RMK A01 T01970165  RH  082%=      5-min Rain = 0
KTA1 061508Z 15008KT 20/17 A3018 RMK A01 T01970165  RH  082%=      5-min Rain = 0
KTA1 061509Z 14007KT 20/17 A3018 RMK A01 T01980165  RH  081%=      5-min Rain = 0
KTA1 061510Z 15008KT 20/17 A3018 RMK A01 T01990165  RH  081%=      5-min Rain = 0
KTA1 061511Z 15007KT 20/17 A3018 RMK A01 T02000165  RH  080%=      5-min Rain = 0
KTA1 061512Z 15006KT 20/17 A3018 RMK A01 T02000165  RH  080%=      5-min Rain = 0
KTA1 061513Z 15009KT 20/17 A3018 RMK A01 T02010165  RH  080%=      5-min Rain = 0
KTA1 061514Z 16009KT 20/17 A3018 RMK A01 T02010165  RH  080%=      5-min Rain = 0
KTA1 061515Z 15008KT 20/17 A3018 RMK A01 T02010165  RH  080%=      5-min Rain = 0
KTA1 061516Z 16010KT 20/17 A3018 RMK A01 T02020166  RH  080%=      5-min Rain = 0
KTA1 061517Z 15008KT 20/17 A3018 RMK A01 T02020166  RH  080%=      5-min Rain = 0
KTA1 061518Z 16010KT 20/17 A3018 RMK A01 T02020166  RH  080%=      5-min Rain = 0
KTA1 061519Z 15010KT 20/17 A3018 RMK A01 T02020166  RH  080%=      5-min Rain = 0
KTA1 061520Z 16011KT 20/17 A3018 RMK A01 T02030166  RH  080%=      5-min Rain = 0
KTA1 061521Z 15011KT 20/17 A3018 RMK A01 T02030167  RH  080%=      5-min Rain = 0
KTA1 061522Z 17010KT 20/17 A3018 RMK A01 T02030167  RH  080%=      5-min Rain = 0
KTA1 061523Z 16009KT 20/17 A3018 RMK A01 T02040167  RH  080%=      5-min Rain = 0
KTA1 061524Z 16008KT 20/17 A3018 RMK A01 T02040167  RH  079%=      5-min Rain = 0
KTA1 061525Z 14007KT 20/17 A3018 RMK A01 T02040167  RH  079%=      5-min Rain = 0
KTA1 061526Z 14010KT 21/17 A3018 RMK A01 T02050167  RH  079%=      5-min Rain = 0
KTA1 061527Z 15010KT 21/17 A3018 RMK A01 T02050167  RH  079%=      5-min Rain = 0
KTA1 061528Z 14008KT 21/17 A3018 RMK A01 T02050167  RH  079%=      5-min Rain = 0
KTA1 061529Z 14009KT 20/17 A3018 RMK A01 T02040167  RH  079%=      5-min Rain = 0
KTA1 061530Z 15009KT 20/17 A3018 RMK A01 T02040167  RH  079%=      5-min Rain = 0
KTA1 061531Z 16009KT 21/17 A3018 RMK A01 T02050167  RH  079%=      5-min Rain = 0
KTA1 061532Z 16009KT 21/17 A3018 RMK A01 T02050167  RH  079%=      5-min Rain = 0
KTA1 061533Z 15009KT 21/17 A3018 RMK A01 T02050168  RH  079%=      5-min Rain = 0
KTA1 061534Z 16011KT 21/17 A3018 RMK A01 T02060168  RH  079%=      5-min Rain = 0
KTA1 061535Z 16012KT 21/17 A3018 RMK A01 T02050168  RH  079%=      5-min Rain = 0
KTA1 061536Z 16011KT 21/17 A3018 RMK A01 T02050168  RH  079%=      5-min Rain = 0
KTA1 061537Z 16009KT 21/17 A3018 RMK A01 T02050168  RH  079%=      5-min Rain = 0
KTA1 061538Z 15010KT 21/17 A3018 RMK A01 T02050168  RH  079%=      5-min Rain = 0
KTA1 061539Z 16011KT 21/17 A3018 RMK A01 T02060168  RH  079%=      5-min Rain = 0
KTA1 061540Z 16009KT 21/17 A3018 RMK A01 T02060168  RH  079%=      5-min Rain = 0
KTA1 061541Z 15010KT 21/17 A3018 RMK A01 T02060168  RH  079%=      5-min Rain = 0
KTA1 061542Z 16011KT 21/17 A3018 RMK A01 T02060168  RH  079%=      5-min Rain = 0
KTA1 061543Z 15010KT 21/17 A3018 RMK A01 T02070168  RH  079%=      5-min Rain = 0
KTA1 061544Z 15011KT 21/17 A3018 RMK A01 T02070168  RH  078%=      5-min Rain = 0
KTA1 061545Z 16013KT 21/17 A3018 RMK A01 T02070168  RH  078%=      5-min Rain = 0
KTA1 061546Z 15011KT 21/17 A3018 RMK A01 T02070168  RH  078%=      5-min Rain = 0
KTA1 061547Z 15009KT 21/17 A3018 RMK A01 T02080169  RH  078%=      5-min Rain = 0
KTA1 061548Z 15011KT 21/17 A3018 RMK A01 T02090168  RH  078%=      5-min Rain = 0
KTA1 061549Z 16012KT 21/17 A3018 RMK A01 T02090168  RH  077%=      5-min Rain = 0
KTA1 061550Z 16010KT 21/17 A3018 RMK A01 T02090168  RH  077%=      5-min Rain = 0
KTA1 061551Z 17011KT 21/17 A3018 RMK A01 T02090168  RH  077%=      5-min Rain = 0
KTA1 061552Z 16008KT 21/17 A3018 RMK A01 T02100168  RH  077%=      5-min Rain = 0
KTA1 061553Z 16009G15KT 21/17 A3018 RMK A01 T02100168  RH  077%=      5-min Rain = 0
KTA1 061554Z 16011KT 21/17 A3018 RMK A01 T02110168  RH  076%=      5-min Rain = 0
KTA1 061555Z 16009KT 21/17 A3018 RMK A01 T02110168  RH  076%=      5-min Rain = 0
KTA1 061556Z 16009KT 21/17 A3018 RMK A01 T02110168  RH  076%=      5-min Rain = 0
KTA1 061557Z 17008KT 21/17 A3018 RMK A01 T02110168  RH  076%=      5-min Rain = 0
KTA1 061558Z 18010KT 21/17 A3018 RMK A01 T02120168  RH  076%=      5-min Rain = 0
KTA1 061559Z 18012KT 21/17 A3018 RMK A01 T02130167  RH  075%=      5-min Rain = 0
KTA1 061600Z 17014KT 21/17 A3018 RMK A01 T02130167  RH  075%=      5-min Rain = 0
KTA1 061601Z 17012KT 21/17 A3018 RMK A01 T02130167  RH  075%=      5-min Rain = 0
KTA1 061602Z 17013KT 21/17 A3018 RMK A01 T02130167  RH  075%=      5-min Rain = 0
KTA1 061603Z 17011G18KT 21/17 A3018 RMK A01 T02130166  RH  075%=      5-min Rain = 0
KTA1 061604Z 17015KT 21/17 A3018 RMK A01 T02130166  RH  074%=      5-min Rain = 0
KTA1 061605Z 17014KT 21/17 A3018 RMK A01 T02130166  RH  074%=      5-min Rain = 0
KTA1 061606Z 17011KT 21/17 A3018 RMK A01 T02130166  RH  075%=      5-min Rain = 0
KTA1 061607Z 17014KT 21/17 A3018 RMK A01 T02130166  RH  074%=      5-min Rain = 0
KTA1 061608Z 16014KT 21/17 A3018 RMK A01 T02130166  RH  074%=      5-min Rain = 0
KTA1 061609Z 16014KT 21/17 A3017 RMK A01 T02130166  RH  074%=      5-min Rain = 0
KTA1 061610Z 16013KT 21/17 A3017 RMK A01 T02130166  RH  075%=      5-min Rain = 0
KTA1 061611Z 17012KT 21/17 A3017 RMK A01 T02120166  RH  075%=      5-min Rain = 0
KTA1 061612Z 17012KT 21/17 A3017 RMK A01 T02120166  RH  075%=      5-min Rain = 0
KTA1 061613Z 17011KT 21/17 A3017 RMK A01 T02120165  RH  075%=      5-min Rain = 0
KTA1 061614Z 16012KT 21/17 A3017 RMK A01 T02130166  RH  074%=      5-min Rain = 0
KTA1 061615Z 16014KT 21/17 A3017 RMK A01 T02130165  RH  074%=      5-min Rain = 0
KTA1 061616Z 16014KT 21/17 A3017 RMK A01 T02130166  RH  074%=      5-min Rain = 0
KTA1 061617Z 16014KT 21/17 A3017 RMK A01 T02130166  RH  074%=      5-min Rain = 0
KTA1 061618Z 16012KT 21/17 A3017 RMK A01 T02130166  RH  074%=      5-min Rain = 0
KTA1 061619Z 16013KT 21/17 A3017 RMK A01 T02130166  RH  074%=      5-min Rain = 0
KTA1 061620Z 16011KT 21/17 A3017 RMK A01 T02130165  RH  074%=      5-min Rain = 0
KTA1 061621Z 17008KT 21/17 A3017 RMK A01 T02140166  RH  074%=      5-min Rain = 0
KTA1 061622Z 17008KT 21/17 A3017 RMK A01 T02140166  RH  074%=      5-min Rain = 0
KTA1 061623Z 17008KT 22/17 A3017 RMK A01 T02150166  RH  074%=      5-min Rain = 0
KTA1 061624Z 17010KT 22/17 A3017 RMK A01 T02160166  RH  073%=      5-min Rain = 0
KTA1 061625Z 17011KT 22/17 A3017 RMK A01 T02160166  RH  073%=      5-min Rain = 0
KTA1 061626Z 18011KT 22/17 A3017 RMK A01 T02160166  RH  073%=      5-min Rain = 0
KTA1 061627Z 17011KT 22/17 A3017 RMK A01 T02160166  RH  073%=      5-min Rain = 0
KTA1 061628Z 17011KT 22/17 A3017 RMK A01 T02160166  RH  073%=      5-min Rain = 0
KTA1 061629Z 16012KT 22/17 A3016 RMK A01 T02170166  RH  073%=      5-min Rain = 0
KTA1 061630Z 17012KT 22/17 A3016 RMK A01 T02160166  RH  073%=      5-min Rain = 0
KTA1 061631Z 16014KT 22/17 A3016 RMK A01 T02170165  RH  072%=      5-min Rain = 0
KTA1 061632Z 16013KT 22/17 A3016 RMK A01 T02180165  RH  072%=      5-min Rain = 0
KTA1 061633Z 16013KT 22/17 A3016 RMK A01 T02180165  RH  071%=      5-min Rain = 0
KTA1 061634Z 17014KT 22/17 A3016 RMK A01 T02190165  RH  071%=      5-min Rain = 0
KTA1 061635Z 17012G18KT 22/17 A3016 RMK A01 T02190165  RH  071%=      5-min Rain = 0
KTA1 061636Z 17012KT 22/17 A3016 RMK A01 T02200165  RH  071%=      5-min Rain = 0
KTA1 061637Z 16011KT 22/17 A3016 RMK A01 T02210165  RH  070%=      5-min Rain = 0
KTA1 061638Z 16014KT 22/17 A3016 RMK A01 T02210165  RH  070%=      5-min Rain = 0
KTA1 061639Z 16014KT 22/16 A3016 RMK A01 T02210164  RH  070%=      5-min Rain = 0
KTA1 061640Z 16015KT 22/16 A3016 RMK A01 T02210164  RH  070%=      5-min Rain = 0
KTA1 061641Z 17017KT 22/16 A3016 RMK A01 T02220163  RH  069%=      5-min Rain = 0
KTA1 061642Z 17017KT 22/16 A3016 RMK A01 T02220163  RH  069%=      5-min Rain = 0
KTA1 061643Z 17017KT 22/16 A3016 RMK A01 T02220163  RH  069%=      5-min Rain = 0
KTA1 061644Z 18014G19KT 22/16 A3016 RMK A01 T02220163  RH  069%=      5-min Rain = 0
KTA1 061645Z 17016KT 22/16 A3016 RMK A01 T02210163  RH  070%=      5-min Rain = 0
KTA1 061646Z 17015KT 22/16 A3016 RMK A01 T02210164  RH  070%=      5-min Rain = 0
KTA1 061647Z 17014G19KT 22/16 A3016 RMK A01 T02200164  RH  070%=      5-min Rain = 0
KTA1 061648Z 17013KT 22/16 A3016 RMK A01 T02210164  RH  070%=      5-min Rain = 0
KTA1 061649Z 17017KT 22/16 A3016 RMK A01 T02210163  RH  069%=      5-min Rain = 0
KTA1 061650Z 17014KT 22/16 A3016 RMK A01 T02210162  RH  069%=      5-min Rain = 0
KTA1 061651Z 17012KT 22/16 A3016 RMK A01 T02220162  RH  069%=      5-min Rain = 0
KTA1 061652Z 17011KT 22/16 A3016 RMK A01 T02230162  RH  069%=      5-min Rain = 0
KTA1 061653Z 16013G18KT 22/16 A3016 RMK A01 T02230162  RH  068%=      5-min Rain = 0
KTA1 061654Z 17015KT 22/16 A3016 RMK A01 T02230162  RH  068%=      5-min Rain = 0
KTA1 061655Z 17016KT 22/16 A3015 RMK A01 T02230162  RH  068%=      5-min Rain = 0
KTA1 061656Z 17012KT 22/16 A3016 RMK A01 T02220162  RH  069%=      5-min Rain = 0
KTA1 061657Z 17014KT 22/16 A3016 RMK A01 T02220162  RH  069%=      5-min Rain = 0
KTA1 061658Z 17017KT 22/16 A3016 RMK A01 T02210162  RH  069%=      5-min Rain = 0
KTA1 061659Z 17014KT 22/16 A3016 RMK A01 T02200162  RH  069%=      5-min Rain = 0
KTA1 061700Z 18010KT 22/16 A3016 RMK A01 T02200162  RH  070%=      5-min Rain = 0
KTA1 061701Z 18009G14KT 22/16 A3016 RMK A01 T02200162  RH  070%=      5-min Rain = 0
KTA1 061702Z 17012KT 22/16 A3016 RMK A01 T02200163  RH  070%=      5-min Rain = 0
KTA1 061703Z 17014KT 22/16 A3015 RMK A01 T02210163  RH  070%=      5-min Rain = 0
KTA1 061704Z 18011KT 22/16 A3015 RMK A01 T02200163  RH  070%=      5-min Rain = 0
KTA1 061705Z 18012G17KT 22/16 A3015 RMK A01 T02200163  RH  070%=      5-min Rain = 0
KTA1 061706Z 17015KT 22/16 A3015 RMK A01 T02200161  RH  069%=      5-min Rain = 0
KTA1 061707Z 17015KT 22/16 A3015 RMK A01 T02200161  RH  069%=      5-min Rain = 0
KTA1 061708Z 17012KT 22/16 A3016 RMK A01 T02200161  RH  069%=      5-min Rain = 0
KTA1 061709Z 17012KT 22/16 A3015 RMK A01 T02200162  RH  069%=      5-min Rain = 0
KTA1 061710Z 17014KT 22/16 A3015 RMK A01 T02200162  RH  069%=      5-min Rain = 0
KTA1 061711Z 19011KT 22/16 A3015 RMK A01 T02200162  RH  069%=      5-min Rain = 0
KTA1 061712Z 18013G18KT 22/16 A3015 RMK A01 T02200161  RH  069%=      5-min Rain = 0
KTA1 061713Z 18014KT 22/16 A3015 RMK A01 T02200161  RH  069%=      5-min Rain = 0
KTA1 061714Z 18013KT 22/16 A3015 RMK A01 T02200160  RH  069%=      5-min Rain = 0
KTA1 061715Z 18015KT 22/16 A3015 RMK A01 T02200160  RH  069%=      5-min Rain = 0
KTA1 061716Z 18014KT 22/16 A3015 RMK A01 T02190160  RH  069%=      5-min Rain = 0
KTA1 061717Z 18014KT 22/16 A3015 RMK A01 T02190160  RH  069%=      5-min Rain = 0
KTA1 061718Z 17016KT 22/16 A3015 RMK A01 T02190160  RH  069%=      5-min Rain = 0
KTA1 061719Z 18016KT 22/16 A3015 RMK A01 T02190160  RH  069%=      5-min Rain = 0
KTA1 061720Z 18014KT 22/16 A3015 RMK A01 T02190160  RH  069%=      5-min Rain = 0
KTA1 061721Z 19015KT 22/16 A3015 RMK A01 T02190160  RH  069%=      5-min Rain = 0
KTA1 061722Z 18014KT 22/16 A3015 RMK A01 T02190160  RH  069%=      5-min Rain = 0
KTA1 061723Z 19014KT 22/16 A3015 RMK A01 T02190160  RH  069%=      5-min Rain = 0
KTA1 061724Z 19014KT 22/16 A3015 RMK A01 T02190160  RH  069%=      5-min Rain = 0
KTA1 061725Z 18013KT 22/16 A3015 RMK A01 T02190160  RH  069%=      5-min Rain = 0
KTA1 061726Z 18015KT 22/16 A3015 RMK A01 T02190160  RH  069%=      5-min Rain = 0
KTA1 061727Z 19013KT 22/16 A3015 RMK A01 T02200160  RH  069%=      5-min Rain = 0
KTA1 061728Z 19014G19KT 22/16 A3015 RMK A01 T02190160  RH  069%=      5-min Rain = 0
KTA1 061729Z 18012KT 22/16 A3015 RMK A01 T02190160  RH  069%=      5-min Rain = 0
KTA1 061730Z 18012KT 22/16 A3015 RMK A01 T02190159  RH  069%=      5-min Rain = 0
KTA1 061731Z 19013KT 22/16 A3015 RMK A01 T02190160  RH  069%=      5-min Rain = 0
KTA1 061732Z 18010KT 22/16 A3015 RMK A01 T02190160  RH  069%=      5-min Rain = 0
KTA1 061733Z 20008KT 22/16 A3015 RMK A01 T02190159  RH  069%=      5-min Rain = 0
KTA1 061734Z 20011KT 22/16 A3015 RMK A01 T02200159  RH  069%=      5-min Rain = 0
KTA1 061735Z 20011KT 22/16 A3015 RMK A01 T02200159  RH  068%=      5-min Rain = 0
KTA1 061736Z 19015KT 22/16 A3015 RMK A01 T02200158  RH  068%=      5-min Rain = 0
KTA1 061737Z 19013KT 22/16 A3015 RMK A01 T02200158  RH  068%=      5-min Rain = 0
KTA1 061738Z 19013KT 22/16 A3015 RMK A01 T02200159  RH  068%=      5-min Rain = 0
KTA1 061739Z 20013KT 22/16 A3015 RMK A01 T02200159  RH  068%=      5-min Rain = 0
KTA1 061740Z 19012KT 22/16 A3015 RMK A01 T02190159  RH  069%=      5-min Rain = 0
KTA1 061741Z 20013KT 22/16 A3015 RMK A01 T02190159  RH  069%=      5-min Rain = 0
KTA1 061742Z 19016KT 22/16 A3015 RMK A01 T02190159  RH  069%=      5-min Rain = 0
KTA1 061743Z 20013KT 22/16 A3015 RMK A01 T02190159  RH  069%=      5-min Rain = 0
KTA1 061744Z 20013KT 22/16 A3015 RMK A01 T02190159  RH  069%=      5-min Rain = 0
KTA1 061745Z 19013KT 22/16 A3015 RMK A01 T02180158  RH  069%=      5-min Rain = 0
KTA1 061746Z 19012KT 22/16 A3015 RMK A01 T02190159  RH  069%=      5-min Rain = 0
KTA1 061747Z 19012KT 22/16 A3015 RMK A01 T02190159  RH  069%=      5-min Rain = 0
KTA1 061748Z 19012KT 22/16 A3015 RMK A01 T02190158  RH  069%=      5-min Rain = 0
KTA1 061749Z 19010KT 22/16 A3015 RMK A01 T02190158  RH  068%=      5-min Rain = 0
KTA1 061750Z 20011KT 22/16 A3015 RMK A01 T02190159  RH  068%=      5-min Rain = 0
KTA1 061751Z 19012KT 22/16 A3015 RMK A01 T02190158  RH  068%=      5-min Rain = 0
KTA1 061752Z 19012KT 22/16 A3015 RMK A01 T02190158  RH  068%=      5-min Rain = 0
KTA1 061753Z 19009KT 22/16 A3015 RMK A01 T02190159  RH  068%=      5-min Rain = 0
KTA1 061754Z 19012KT 22/16 A3015 RMK A01 T02190159  RH  068%=      5-min Rain = 0
KTA1 061755Z 19010KT 22/16 A3015 RMK A01 T02190158  RH  068%=      5-min Rain = 0
KTA1 061756Z 19011KT 22/16 A3015 RMK A01 T02190158  RH  068%=      5-min Rain = 0
KTA1 061757Z 20012KT 22/16 A3015 RMK A01 T02190158  RH  068%=      5-min Rain = 0
KTA1 061758Z 20011KT 22/16 A3015 RMK A01 T02190157  RH  068%=      5-min Rain = 0
KTA1 061759Z 19010KT 22/16 A3015 RMK A01 T02190157  RH  068%=      5-min Rain = 0
KTA1 061800Z 19009KT 22/16 A3015 RMK A01 T02190157  RH  068%=      5-min Rain = 0
KTA1 061801Z 19011KT 22/16 A3015 RMK A01 T02200157  RH  068%=      5-min Rain = 0
KTA1 061802Z 19009KT 22/16 A3015 RMK A01 T02200157  RH  068%=      5-min Rain = 0
KTA1 061803Z 19009G14KT 22/16 A3015 RMK A01 T02200157  RH  068%=      5-min Rain = 0
KTA1 061804Z 19011KT 22/16 A3015 RMK A01 T02200157  RH  068%=      5-min Rain = 0
KTA1 061805Z 20010KT 22/16 A3015 RMK A01 T02200157  RH  067%=      5-min Rain = 0
KTA1 061806Z 19011KT 22/16 A3015 RMK A01 T02200157  RH  067%=      5-min Rain = 0
KTA1 061807Z 19010KT 22/16 A3014 RMK A01 T02200156  RH  067%=      5-min Rain = 0
KTA1 061808Z 19011KT 22/16 A3014 RMK A01 T02200157  RH  067%=      5-min Rain = 0
KTA1 061809Z 20010KT 22/16 A3014 RMK A01 T02200156  RH  067%=      5-min Rain = 0
KTA1 061810Z 20009KT 22/16 A3014 RMK A01 T02200157  RH  067%=      5-min Rain = 0
KTA1 061811Z 21008KT 22/16 A3014 RMK A01 T02200157  RH  067%=      5-min Rain = 0
KTA1 061812Z 21007KT 22/16 A3014 RMK A01 T02210158  RH  067%=      5-min Rain = 0
KTA1 061813Z 20009KT 22/16 A3014 RMK A01 T02210158  RH  067%=      5-min Rain = 0
KTA1 061814Z 19008KT 22/16 A3014 RMK A01 T02210157  RH  067%=      5-min Rain = 0
KTA1 061815Z 19008KT 22/16 A3014 RMK A01 T02210157  RH  067%=      5-min Rain = 0
KTA1 061816Z 20006KT 22/16 A3014 RMK A01 T02210157  RH  067%=      5-min Rain = 0
KTA1 061817Z 20008KT 22/16 A3014 RMK A01 T02220157  RH  067%=      5-min Rain = 0
KTA1 061818Z 19008G14KT 22/16 A3014 RMK A01 T02220157  RH  067%=      5-min Rain = 0
KTA1 061819Z 19010KT 22/16 A3014 RMK A01 T02220157  RH  067%=      5-min Rain = 0
KTA1 061820Z 19010KT 22/16 A3014 RMK A01 T02220157  RH  067%=      5-min Rain = 0
KTA1 061821Z 19009KT 22/16 A3014 RMK A01 T02220157  RH  067%=      5-min Rain = 0
KTA1 061822Z 19011KT 22/16 A3014 RMK A01 T02220157  RH  067%=      5-min Rain = 0
KTA1 061823Z 18011KT 22/16 A3013 RMK A01 T02220158  RH  067%=      5-min Rain = 0
KTA1 061824Z 18010KT 22/16 A3013 RMK A01 T02230158  RH  067%=      5-min Rain = 0
KTA1 061825Z 19010KT 22/16 A3014 RMK A01 T02230158  RH  067%=      5-min Rain = 0
KTA1 061826Z 20009KT 22/16 A3014 RMK A01 T02230157  RH  066%=      5-min Rain = 0
KTA1 061827Z 18009KT 22/16 A3013 RMK A01 T02230158  RH  067%=      5-min Rain = 0
KTA1 061828Z 17011KT 22/16 A3014 RMK A01 T02230158  RH  067%=      5-min Rain = 0
KTA1 061829Z 18010KT 22/16 A3013 RMK A01 T02230159  RH  067%=      5-min Rain = 0
KTA1 061830Z 18010KT 22/16 A3013 RMK A01 T02230159  RH  067%=      5-min Rain = 0
KTA1 061831Z 17008KT 22/16 A3013 RMK A01 T02230159  RH  067%=      5-min Rain = 0
KTA1 061832Z 18005KT 22/16 A3013 RMK A01 T02220159  RH  067%=      5-min Rain = 0
KTA1 061833Z 19008KT 22/16 A3013 RMK A01 T02220158  RH  067%=      5-min Rain = 0
KTA1 061834Z 18009KT 22/16 A3013 RMK A01 T02230158  RH  066%=      5-min Rain = 0
KTA1 061835Z 19010KT 22/16 A3013 RMK A01 T02230157  RH  066%=      5-min Rain = 0
KTA1 061836Z 19008KT 22/16 A3013 RMK A01 T02230157  RH  066%=      5-min Rain = 0
KTA1 061837Z 19007KT 22/16 A3013 RMK A01 T02230157  RH  066%=      5-min Rain = 0
KTA1 061838Z 19010KT 22/16 A3013 RMK A01 T02230158  RH  066%=      5-min Rain = 0
KTA1 061839Z 19010KT 22/16 A3013 RMK A01 T02240157  RH  066%=      5-min Rain = 0
KTA1 061840Z 18010KT 22/16 A3013 RMK A01 T02240157  RH  066%=      5-min Rain = 0
KTA1 061841Z 18012KT 23/16 A3013 RMK A01 T02250157  RH  066%=      5-min Rain = 0
KTA1 061842Z 17012KT 23/16 A3013 RMK A01 T02250157  RH  066%=      5-min Rain = 0
KTA1 061843Z 17010KT 23/16 A3013 RMK A01 T02250157  RH  066%=      5-min Rain = 0
KTA1 061844Z 18011KT 23/16 A3012 RMK A01 T02250157  RH  066%=      5-min Rain = 0
KTA1 061845Z 18007KT 23/16 A3012 RMK A01 T02250157  RH  066%=      5-min Rain = 0
KTA1 061846Z 18007KT 23/16 A3012 RMK A01 T02250157  RH  066%=      5-min Rain = 0
KTA1 061847Z 18008KT 23/16 A3012 RMK A01 T02250158  RH  066%=      5-min Rain = 0
KTA1 061848Z 18009KT 23/16 A3012 RMK A01 T02260157  RH  065%=      5-min Rain = 0
KTA1 061849Z 17009KT 23/16 A3012 RMK A01 T02260157  RH  065%=      5-min Rain = 0
KTA1 061850Z 18010KT 23/16 A3012 RMK A01 T02260157  RH  065%=      5-min Rain = 0
KTA1 061851Z 17009KT 23/16 A3012 RMK A01 T02260157  RH  065%=      5-min Rain = 0
KTA1 061852Z 19009KT 23/16 A3012 RMK A01 T02270157  RH  064%=      5-min Rain = 0
KTA1 061853Z 19010KT 23/16 A3012 RMK A01 T02270156  RH  064%=      5-min Rain = 0
KTA1 061854Z 18012KT 23/16 A3012 RMK A01 T02280155  RH  064%=      5-min Rain = 0
KTA1 061855Z 18013KT 23/16 A3011 RMK A01 T02280155  RH  064%=      5-min Rain = 0
KTA1 061856Z 17013KT 23/16 A3011 RMK A01 T02280156  RH  064%=      5-min Rain = 0
KTA1 061857Z 18011KT 23/16 A3011 RMK A01 T02280156  RH  064%=      5-min Rain = 0
KTA1 061858Z 17010KT 23/16 A3011 RMK A01 T02280157  RH  064%=      5-min Rain = 0
KTA1 061859Z 17009KT 23/16 A3011 RMK A01 T02280157  RH  064%=      5-min Rain = 0
KTA1 061900Z 17008KT 23/16 A3011 RMK A01 T02280157  RH  064%=      5-min Rain = 0
KTA1 061901Z 17009KT 23/16 A3011 RMK A01 T02280158  RH  064%=      5-min Rain = 0
KTA1 061902Z 16011KT 23/16 A3011 RMK A01 T02280158  RH  064%=      5-min Rain = 0
KTA1 061903Z 16012KT 23/16 A3011 RMK A01 T02280158  RH  064%=      5-min Rain = 0
KTA1 061904Z 17012KT 23/16 A3011 RMK A01 T02280158  RH  064%=      5-min Rain = 0
KTA1 061905Z 16011KT 23/16 A3011 RMK A01 T02280158  RH  064%=      5-min Rain = 0
KTA1 061906Z 16011KT 23/16 A3011 RMK A01 T02280158  RH  065%=      5-min Rain = 0
KTA1 061907Z 16011KT 23/16 A3011 RMK A01 T02280159  RH  065%=      5-min Rain = 0
KTA1 061908Z 17010KT 23/16 A3011 RMK A01 T02280159  RH  065%=      5-min Rain = 0
KTA1 061909Z 17011KT 23/16 A3011 RMK A01 T02280158  RH  065%=      5-min Rain = 0
KTA1 061910Z 18010KT 23/16 A3011 RMK A01 T02280158  RH  065%=      5-min Rain = 0
KTA1 061911Z 17010KT 23/16 A301 RMK A01 T02280158  RH  065%=      5-min Rain = 0
KTA1 061912Z 18013KT 23/16 A301 RMK A01 T02290158  RH  064%=      5-min Rain = 0
KTA1 061913Z 18011KT 23/16 A301 RMK A01 T02290158  RH  064%=      5-min Rain = 0
KTA1 061914Z 18012KT 23/16 A301 RMK A01 T02300158  RH  064%=      5-min Rain = 0
KTA1 061915Z 18012KT 23/16 A301 RMK A01 T02300157  RH  063%=      5-min Rain = 0
KTA1 061916Z 18011KT 23/16 A301 RMK A01 T02310157  RH  063%=      5-min Rain = 0
KTA1 061917Z 17008KT 23/16 A301 RMK A01 T02310158  RH  063%=      5-min Rain = 0
KTA1 061918Z 17010G15KT 23/16 A301 RMK A01 T02320158  RH  063%=      5-min Rain = 0
KTA1 061919Z 18014KT 23/16 A301 RMK A01 T02320157  RH  063%=      5-min Rain = 0
KTA1 061920Z 17013KT 23/16 A301 RMK A01 T02320157  RH  063%=      5-min Rain = 0
KTA1 061921Z 18009KT 23/16 A301 RMK A01 T02310157  RH  063%=      5-min Rain = 0
KTA1 061922Z 18011KT 23/16 A301 RMK A01 T02310157  RH  063%=      5-min Rain = 0
KTA1 061923Z 18009KT 23/16 A301 RMK A01 T02320157  RH  063%=      5-min Rain = 0
KTA1 061924Z 18008G13KT 23/16 A301 RMK A01 T02320158  RH  063%=      5-min Rain = 0
KTA1 061925Z 19011KT 23/16 A3009 RMK A01 T02320158  RH  063%=      5-min Rain = 0
KTA1 061926Z 18009KT 23/16 A3009 RMK A01 T02320157  RH  063%=      5-min Rain = 0
KTA1 061927Z 18008KT 23/16 A3009 RMK A01 T02320158  RH  063%=      5-min Rain = 0
KTA1 061928Z 17010KT 23/16 A3009 RMK A01 T02320158  RH  063%=      5-min Rain = 0
KTA1 061929Z 18009KT 23/16 A3009 RMK A01 T02330158  RH  063%=      5-min Rain = 0
KTA1 061930Z 18009KT 23/16 A3009 RMK A01 T02330158  RH  063%=      5-min Rain = 0
KTA1 061931Z 18009KT 23/16 A3009 RMK A01 T02330158  RH  063%=      5-min Rain = 0
KTA1 061932Z 17009KT 23/16 A3009 RMK A01 T02320158  RH  063%=      5-min Rain = 0
KTA1 061933Z 18009KT 23/16 A3009 RMK A01 T02320158  RH  063%=      5-min Rain = 0
KTA1 061934Z 18010KT 23/16 A3009 RMK A01 T02320158  RH  063%=      5-min Rain = 0
KTA1 061935Z 18009KT 23/16 A3009 RMK A01 T02320158  RH  063%=      5-min Rain = 0
KTA1 061936Z 17009KT 23/16 A3008 RMK A01 T02320158  RH  063%=      5-min Rain = 0
KTA1 061937Z 18008KT 23/16 A3008 RMK A01 T02320157  RH  063%=      5-min Rain = 0
KTA1 061938Z 18009KT 23/16 A3008 RMK A01 T02320157  RH  063%=      5-min Rain = 0
KTA1 061939Z 20009KT 23/16 A3008 RMK A01 T02330158  RH  063%=      5-min Rain = 0
KTA1 061940Z 19009KT 23/16 A3008 RMK A01 T02330158  RH  063%=      5-min Rain = 0
KTA1 061941Z 19009KT 23/16 A3008 RMK A01 T02330158  RH  063%=      5-min Rain = 0
KTA1 061942Z 20009KT 23/16 A3008 RMK A01 T02330158  RH  063%=      5-min Rain = 0
KTA1 061943Z 19011KT 23/16 A3008 RMK A01 T02340159  RH  063%=      5-min Rain = 0
KTA1 061944Z 18010KT 23/16 A3008 RMK A01 T02340159  RH  063%=      5-min Rain = 0
KTA1 061945Z 17007KT 23/16 A3008 RMK A01 T02340160  RH  063%=      5-min Rain = 0
KTA1 061946Z 17010KT 24/16 A3008 RMK A01 T02350159  RH  062%=      5-min Rain = 0
KTA1 061947Z 19009KT 24/16 A3008 RMK A01 T02350159  RH  062%=      5-min Rain = 0
KTA1 061948Z 18008KT 24/16 A3008 RMK A01 T02350159  RH  062%=      5-min Rain = 0
KTA1 061949Z 19009KT 24/16 A3008 RMK A01 T02350160  RH  063%=      5-min Rain = 0
KTA1 061950Z 19010KT 24/16 A3008 RMK A01 T02350160  RH  063%=      5-min Rain = 0
KTA1 061951Z 20009KT 23/16 A3008 RMK A01 T02340160  RH  063%=      5-min Rain = 0
KTA1 061952Z 20007KT 23/16 A3008 RMK A01 T02340160  RH  063%=      5-min Rain = 0
KTA1 061953Z 19009KT 23/16 A3008 RMK A01 T02340160  RH  063%=      5-min Rain = 0
KTA1 061954Z 18008KT 23/16 A3008 RMK A01 T02340160  RH  063%=      5-min Rain = 0
KTA1 061955Z 18011KT 24/16 A3008 RMK A01 T02350160  RH  063%=      5-min Rain = 0
KTA1 061956Z 18010KT 24/16 A3008 RMK A01 T02350160  RH  063%=      5-min Rain = 0
KTA1 061957Z 18009KT 23/16 A3008 RMK A01 T02340160  RH  063%=      5-min Rain = 0
KTA1 061958Z 18009KT 23/16 A3008 RMK A01 T02340160  RH  063%=      5-min Rain = 0
KTA1 061959Z 19007KT 23/16 A3008 RMK A01 T02330159  RH  063%=      5-min Rain = 0
KTA1 062000Z 18009KT 23/16 A3008 RMK A01 T02330159  RH  063%=      5-min Rain = 0
KTA1 062001Z 18009KT 23/16 A3008 RMK A01 T02340159  RH  063%=      5-min Rain = 0
KTA1 062002Z 19008KT 23/16 A3008 RMK A01 T02330159  RH  063%=      5-min Rain = 0
KTA1 062003Z 18006KT 23/16 A3008 RMK A01 T02330159  RH  063%=      5-min Rain = 0
KTA1 062004Z 18008KT 23/16 A3008 RMK A01 T02320159  RH  063%=      5-min Rain = 0
KTA1 062005Z 18006KT 23/16 A3008 RMK A01 T02320159  RH  063%=      5-min Rain = 0
KTA1 062006Z 19005KT 23/16 A3008 RMK A01 T02330159  RH  063%=      5-min Rain = 0
KTA1 062007Z 19007KT 23/16 A3008 RMK A01 T02340160  RH  063%=      5-min Rain = 0
KTA1 062008Z 19006KT 23/16 A3009 RMK A01 T02330159  RH  063%=      5-min Rain = 0
KTA1 062009Z 19006KT 23/16 A3009 RMK A01 T02330160  RH  063%=      5-min Rain = 0
KTA1 062010Z 18006KT 23/16 A3009 RMK A01 T02330159  RH  063%=      5-min Rain = 0
KTA1 062011Z 20005KT 23/16 A3009 RMK A01 T02330160  RH  063%=      5-min Rain = 0
KTA1 062012Z 19006KT 23/16 A3008 RMK A01 T02330159  RH  063%=      5-min Rain = 0
KTA1 062013Z 19006KT 23/16 A3008 RMK A01 T02330159  RH  063%=      5-min Rain = 0
KTA1 062014Z 18006KT 23/16 A3008 RMK A01 T02330159  RH  063%=      5-min Rain = 0
KTA1 062015Z 19007KT 23/16 A3008 RMK A01 T02320159  RH  063%=      5-min Rain = 0
KTA1 062016Z 20007KT 23/16 A3008 RMK A01 T02330160  RH  063%=      5-min Rain = 0
KTA1 062017Z 18009KT 23/16 A3008 RMK A01 T02330159  RH  063%=      5-min Rain = 0
KTA1 062018Z 17010KT 23/16 A3008 RMK A01 T02340158  RH  062%=      5-min Rain = 0
KTA1 062019Z 17008KT 23/16 A3008 RMK A01 T02340158  RH  062%=      5-min Rain = 0
KTA1 062020Z 18008KT 24/16 A3008 RMK A01 T02350158  RH  062%=      5-min Rain = 0
KTA1 062021Z 18008KT 24/16 A3008 RMK A01 T02350158  RH  062%=      5-min Rain = 0
KTA1 062022Z 18008KT 24/16 A3008 RMK A01 T02350158  RH  062%=      5-min Rain = 0
KTA1 062023Z 18008KT 24/16 A3008 RMK A01 T02350157  RH  062%=      5-min Rain = 0
KTA1 062024Z 18010KT 24/16 A3008 RMK A01 T02350155  RH  061%=      5-min Rain = 0
KTA1 062025Z 18010KT 24/15 A3008 RMK A01 T02350154  RH  060%=      5-min Rain = 0
KTA1 062026Z 18009KT 24/15 A3008 RMK A01 T02360154  RH  060%=      5-min Rain = 0
KTA1 062027Z 18011KT 24/15 A3008 RMK A01 T02370154  RH  060%=      5-min Rain = 0
KTA1 062028Z 18011KT 24/15 A3008 RMK A01 T02370154  RH  060%=      5-min Rain = 0
KTA1 062029Z 17009KT 24/15 A3008 RMK A01 T02360154  RH  060%=      5-min Rain = 0
KTA1 062030Z 17011KT 24/15 A3008 RMK A01 T02360154  RH  060%=      5-min Rain = 0
KTA1 062031Z 17010KT 24/15 A3008 RMK A01 T02360154  RH  060%=      5-min Rain = 0
KTA1 062032Z 18010KT 24/15 A3008 RMK A01 T02360154  RH  060%=      5-min Rain = 0
KTA1 062033Z 17008KT 24/16 A3008 RMK A01 T02360155  RH  060%=      5-min Rain = 0
KTA1 062034Z 16009KT 24/16 A3008 RMK A01 T02360156  RH  061%=      5-min Rain = 0
KTA1 062035Z 15008KT 24/16 A3008 RMK A01 T02360157  RH  061%=      5-min Rain = 0
KTA1 062036Z 15008KT 24/16 A3008 RMK A01 T02360157  RH  061%=      5-min Rain = 0
KTA1 062037Z 16008KT 24/16 A3008 RMK A01 T02360158  RH  062%=      5-min Rain = 0
KTA1 062038Z 17008KT 24/16 A3008 RMK A01 T02360159  RH  062%=      5-min Rain = 0
KTA1 062039Z 16008KT 24/16 A3008 RMK A01 T02350159  RH  062%=      5-min Rain = 0
KTA1 062040Z 16008KT 24/16 A3008 RMK A01 T02350159  RH  062%=      5-min Rain = 0
KTA1 062041Z 16010KT 24/16 A3008 RMK A01 T02350159  RH  062%=      5-min Rain = 0
KTA1 062042Z 16008KT 23/16 A3008 RMK A01 T02340158  RH  062%=      5-min Rain = 0
KTA1 062043Z 15007KT 23/16 A3008 RMK A01 T02330158  RH  062%=      5-min Rain = 0
KTA1 062044Z 15009KT 23/16 A3008 RMK A01 T02340159  RH  063%=      5-min Rain = 0
KTA1 062045Z 14010KT 23/16 A3008 RMK A01 T02330159  RH  063%=      5-min Rain = 0
KTA1 062046Z 15011KT 23/16 A3008 RMK A01 T02330160  RH  064%=      5-min Rain = 0
KTA1 062047Z 16008KT 23/16 A3008 RMK A01 T02320160  RH  064%=      5-min Rain = 0
KTA1 062048Z 16009KT 23/16 A3008 RMK A01 T02330161  RH  064%=      5-min Rain = 0
KTA1 062049Z 15009KT 23/16 A3008 RMK A01 T02330161  RH  064%=      5-min Rain = 0
KTA1 062050Z 15008KT 23/16 A3008 RMK A01 T02320160  RH  064%=      5-min Rain = 0
KTA1 062051Z 14007KT 23/16 A3008 RMK A01 T02320161  RH  064%=      5-min Rain = 0
KTA1 062052Z 15008KT 23/16 A3008 RMK A01 T02320161  RH  064%=      5-min Rain = 0
KTA1 062053Z 15008KT 23/16 A3008 RMK A01 T02320161  RH  064%=      5-min Rain = 0
KTA1 062054Z 15007KT 23/16 A3008 RMK A01 T02320160  RH  064%=      5-min Rain = 0
KTA1 062055Z 14009KT 23/16 A3008 RMK A01 T02330160  RH  064%=      5-min Rain = 0
KTA1 062056Z 14010KT 23/16 A3008 RMK A01 T02320160  RH  064%=      5-min Rain = 0
KTA1 062057Z 14010KT 23/16 A3008 RMK A01 T02330159  RH  063%=      5-min Rain = 0
KTA1 062058Z 15010KT 23/16 A3007 RMK A01 T02330159  RH  063%=      5-min Rain = 0
KTA1 062059Z 15010KT 23/16 A3007 RMK A01 T02330159  RH  063%=      5-min Rain = 0
KTA1 062100Z 15010KT 23/16 A3007 RMK A01 T02340159  RH  063%=      5-min Rain = 0
KTA1 062101Z 16010KT 24/16 A3007 RMK A01 T02350159  RH  062%=      5-min Rain = 0
KTA1 062102Z 16010KT 24/16 A3007 RMK A01 T02350159  RH  062%=      5-min Rain = 0
KTA1 062103Z 16010KT 24/16 A3007 RMK A01 T02360159  RH  062%=      5-min Rain = 0
KTA1 062104Z 16010KT 24/16 A3007 RMK A01 T02360158  RH  062%=      5-min Rain = 0
KTA1 062105Z 16007KT 24/16 A3007 RMK A01 T02370159  RH  061%=      5-min Rain = 0
KTA1 062106Z 17010KT 24/16 A3007 RMK A01 T02380159  RH  061%=      5-min Rain = 0
KTA1 062107Z 16011KT 24/16 A3007 RMK A01 T02390159  RH  061%=      5-min Rain = 0
KTA1 062108Z 16008KT 24/16 A3007 RMK A01 T02390159  RH  061%=      5-min Rain = 0
KTA1 062109Z 16011KT 24/16 A3007 RMK A01 T02390158  RH  060%=      5-min Rain = 0
KTA1 062110Z 17010KT 24/16 A3007 RMK A01 T02390157  RH  060%=      5-min Rain = 0
KTA1 062111Z 16012KT 24/16 A3007 RMK A01 T02390157  RH  060%=      5-min Rain = 0
KTA1 062112Z 16013KT 24/16 A3007 RMK A01 T02400157  RH  060%=      5-min Rain = 0
KTA1 062113Z 16013KT 24/16 A3007 RMK A01 T02390157  RH  060%=      5-min Rain = 0
KTA1 062114Z 16012KT 24/16 A3007 RMK A01 T02380157  RH  060%=      5-min Rain = 0
KTA1 062115Z 17011KT 24/16 A3007 RMK A01 T02380156  RH  060%=      5-min Rain = 0
KTA1 062116Z 16011KT 24/16 A3007 RMK A01 T02380156  RH  060%=      5-min Rain = 0
KTA1 062117Z 16011KT 24/16 A3007 RMK A01 T02380156  RH  060%=      5-min Rain = 0
KTA1 062118Z 17011KT 24/16 A3007 RMK A01 T02380156  RH  060%=      5-min Rain = 0
KTA1 062119Z 17009KT 24/16 A3007 RMK A01 T02390157  RH  060%=      5-min Rain = 0
KTA1 062120Z 16009G14KT 24/16 A3007 RMK A01 T02390157  RH  060%=      5-min Rain = 0
KTA1 062121Z 16011KT 24/16 A3007 RMK A01 T02390156  RH  060%=      5-min Rain = 0
KTA1 062122Z 16010KT 24/16 A3007 RMK A01 T02380156  RH  060%=      5-min Rain = 0
KTA1 062123Z 18012KT 24/16 A3007 RMK A01 T02380156  RH  060%=      5-min Rain = 0
KTA1 062124Z 18010KT 24/16 A3007 RMK A01 T02380157  RH  060%=      5-min Rain = 0
KTA1 062125Z 17010KT 24/16 A3007 RMK A01 T02370156  RH  060%=      5-min Rain = 0
KTA1 062126Z 18010KT 24/16 A3007 RMK A01 T02370156  RH  060%=      5-min Rain = 0
KTA1 062127Z 17011KT 24/16 A3008 RMK A01 T02370156  RH  060%=      5-min Rain = 0
KTA1 062128Z 17009KT 24/16 A3008 RMK A01 T02370156  RH  060%=      5-min Rain = 0
KTA1 062129Z 17008KT 24/16 A3008 RMK A01 T02370156  RH  060%=      5-min Rain = 0
KTA1 062130Z 16012KT 24/16 A3008 RMK A01 T02370156  RH  060%=      5-min Rain = 0
KTA1 062131Z 16011KT 24/16 A3008 RMK A01 T02370156  RH  061%=      5-min Rain = 0
KTA1 062132Z 16007KT 24/16 A3008 RMK A01 T02360156  RH  061%=      5-min Rain = 0
KTA1 062133Z 16007KT 24/16 A3008 RMK A01 T02360156  RH  061%=      5-min Rain = 0
KTA1 062134Z 16003KT 24/16 A3008 RMK A01 T02350156  RH  061%=      5-min Rain = 0
KTA1 062135Z 16003KT 24/16 A3008 RMK A01 T02350156  RH  061%=      5-min Rain = 0
KTA1 062136Z 13002KT 24/16 A3009 RMK A01 T02350156  RH  061%=      5-min Rain = 0
KTA1 062137Z 00008KT 24/16 A3009 RMK A01 T02350156  RH  061%=      5-min Rain = 0
KTA1 062138Z 01007KT 22/15 A3009 RMK A01 T02230153  RH  064%=      5-min Rain = 0
KTA1 062139Z 01008KT 21/15 A3009 RMK A01 T02090151  RH  069%=      5-min Rain = 0
KTA1 062140Z 00010KT 20/15 A3008 RMK A01 T02010152  RH  073%=      5-min Rain = 0
KTA1 062141Z 35010KT 20/15 A3008 RMK A01 T01960153  RH  076%=      5-min Rain = 0
KTA1 062142Z 36010KT 19/16 A3008 RMK A01 T01930155  RH  078%=      5-min Rain = 0
KTA1 062143Z 02010KT 19/16 A3008 RMK A01 T01940156  RH  079%=      5-min Rain = 0
KTA1 062144Z 03009KT 20/16 A3008 RMK A01 T01950156  RH  078%=      5-min Rain = 0
KTA1 062145Z 03009KT 20/16 A3008 RMK A01 T01960157  RH  078%=      5-min Rain = 0
KTA1 062146Z 04010KT 20/16 A3008 RMK A01 T01960157  RH  078%=      5-min Rain = 0
KTA1 062147Z 04010KT 20/16 A3009 RMK A01 T01960157  RH  078%=      5-min Rain = 0
KTA1 062148Z 02012KT 20/16 A3009 RMK A01 T01950156  RH  078%=      5-min Rain = 0
KTA1 062149Z 02014KT 19/16 A3009 RMK A01 T01930156  RH  079%=      5-min Rain = 0
KTA1 062150Z 03014KT 19/16 A3009 RMK A01 T01920155  RH  079%=      5-min Rain = 0
KTA1 062151Z 03010KT 19/16 A3009 RMK A01 T01900155  RH  080%=      5-min Rain = 0
KTA1 062152Z 02012KT 19/16 A3009 RMK A01 T01890155  RH  081%=      5-min Rain = 0
KTA1 062153Z 02012KT 19/16 A3009 RMK A01 T01880155  RH  081%=      5-min Rain = 0
KTA1 062154Z 02012KT 19/15 A3009 RMK A01 T01870154  RH  081%=      5-min Rain = 0
KTA1 062155Z 02010KT 19/15 A3009 RMK A01 T01860154  RH  082%=      5-min Rain = 0
KTA1 062156Z 03013KT 19/15 A3009 RMK A01 T01850154  RH  082%=      5-min Rain = 0
KTA1 062157Z 03013KT 19/15 A3009 RMK A01 T01850154  RH  082%=      5-min Rain = 0
KTA1 062158Z 04012KT 18/16 A3009 RMK A01 T01840155  RH  083%=      5-min Rain = 0
KTA1 062159Z 03013KT 18/15 A3009 RMK A01 T01830154  RH  083%=      5-min Rain = 0
KTA1 062200Z 03011KT 18/15 A3009 RMK A01 T01830154  RH  083%=      5-min Rain = 0
KTA1 062201Z 03013KT 18/15 A3009 RMK A01 T01820154  RH  084%=      5-min Rain = 0
KTA1 062202Z 03011KT 18/15 A3009 RMK A01 T01820153  RH  083%=      5-min Rain = 0
KTA1 062203Z 03011KT 18/15 A3009 RMK A01 T01820152  RH  083%=      5-min Rain = 0
KTA1 062204Z 03008KT 18/15 A3009 RMK A01 T01820150  RH  082%=      5-min Rain = 0
KTA1 062205Z 02009KT 18/15 A3009 RMK A01 T01810150  RH  082%=      5-min Rain = 0
KTA1 062206Z 02012KT 18/15 A3009 RMK A01 T01810149  RH  082%=      5-min Rain = 0
KTA1 062207Z 02013KT 18/15 A3009 RMK A01 T01810149  RH  082%=      5-min Rain = 0
KTA1 062208Z 03014KT 18/15 A3009 RMK A01 T01800149  RH  082%=      5-min Rain = 0
KTA1 062209Z 03012KT 18/15 A3009 RMK A01 T01800150  RH  082%=      5-min Rain = 0
KTA1 062210Z 02012KT 18/15 A3009 RMK A01 T01800149  RH  082%=      5-min Rain = 0
KTA1 062211Z 02015KT 18/15 A3009 RMK A01 T01790149  RH  083%=      5-min Rain = 0
KTA1 062212Z 02015KT 18/15 A3009 RMK A01 T01780148  RH  083%=      5-min Rain = 0
KTA1 062213Z 02013KT 18/15 A3009 RMK A01 T01760148  RH  084%=      5-min Rain = 0
KTA1 062214Z 02012KT 18/15 A3009 RMK A01 T01760149  RH  084%=      5-min Rain = 0
KTA1 062215Z 03013KT 18/15 A3009 RMK A01 T01760149  RH  084%=      5-min Rain = 0
KTA1 062216Z 02013KT 18/15 A3009 RMK A01 T01750148  RH  084%=      5-min Rain = 0
KTA1 062217Z 03013KT 18/15 A3009 RMK A01 T01750148  RH  084%=      5-min Rain = 0
KTA1 062218Z 04014KT 18/15 A3009 RMK A01 T01750147  RH  083%=      5-min Rain = 0
KTA1 062219Z 04014KT 18/15 A3009 RMK A01 T01750146  RH  083%=      5-min Rain = 0
KTA1 062220Z 04012KT 18/15 A3009 RMK A01 T01750146  RH  083%=      5-min Rain = 0
KTA1 062221Z 04015KT 18/15 A3009 RMK A01 T01760145  RH  082%=      5-min Rain = 0
KTA1 062222Z 04015KT 18/14 A3009 RMK A01 T01760144  RH  082%=      5-min Rain = 0
KTA1 062223Z 04013KT 18/14 A3009 RMK A01 T01760144  RH  082%=      5-min Rain = 0
KTA1 062224Z 04013KT 18/14 A3009 RMK A01 T01750144  RH  082%=      5-min Rain = 0
KTA1 062225Z 04015KT 18/14 A3009 RMK A01 T01750144  RH  082%=      5-min Rain = 0
KTA1 062226Z 04014KT 18/14 A3009 RMK A01 T01760143  RH  081%=      5-min Rain = 0
KTA1 062227Z 04014KT 18/14 A3009 RMK A01 T01750143  RH  081%=      5-min Rain = 0
KTA1 062228Z 04013KT 17/14 A3009 RMK A01 T01740142  RH  081%=      5-min Rain = 0
KTA1 062229Z 05014KT 17/14 A3009 RMK A01 T01740141  RH  081%=      5-min Rain = 0
KTA1 062230Z 04013KT 17/14 A3009 RMK A01 T01740140  RH  080%=      5-min Rain = 0
KTA1 062231Z 04014KT 17/14 A3009 RMK A01 T01740139  RH  080%=      5-min Rain = 0
KTA1 062232Z 04014KT 17/14 A3009 RMK A01 T01730138  RH  080%=      5-min Rain = 0
KTA1 062233Z 04015KT 17/14 A3009 RMK A01 T01730137  RH  080%=      5-min Rain = 0
KTA1 062234Z 04012KT 17/14 A3009 RMK A01 T01730137  RH  080%=      5-min Rain = 0
KTA1 062235Z 04014KT 17/14 A3009 RMK A01 T01720136  RH  079%=      5-min Rain = 0
KTA1 062236Z 04015KT 17/14 A3009 RMK A01 T01730136  RH  079%=      5-min Rain = 0
KTA1 062237Z 04013KT 17/14 A3009 RMK A01 T01720136  RH  079%=      5-min Rain = 0
KTA1 062238Z 04011KT 17/14 A3009 RMK A01 T01720135  RH  079%=      5-min Rain = 0
KTA1 062239Z 04012KT 17/13 A3009 RMK A01 T01720133  RH  078%=      5-min Rain = 0
KTA1 062240Z 04012KT 17/13 A3009 RMK A01 T01710132  RH  078%=      5-min Rain = 0
KTA1 062241Z 04014KT 17/13 A3009 RMK A01 T01710131  RH  077%=      5-min Rain = 0
KTA1 062242Z 04015KT 17/13 A3009 RMK A01 T01700130  RH  077%=      5-min Rain = 0
KTA1 062243Z 04016KT 17/13 A3009 RMK A01 T01690130  RH  078%=      5-min Rain = 0
KTA1 062244Z 03014KT 17/13 A3009 RMK A01 T01690130  RH  078%=      5-min Rain = 0
KTA1 062245Z 03013KT 17/13 A301 RMK A01 T01680130  RH  078%=      5-min Rain = 0
KTA1 062246Z 04013KT 17/13 A301 RMK A01 T01680130  RH  078%=      5-min Rain = 0
KTA1 062247Z 04013KT 17/13 A301 RMK A01 T01680130  RH  078%=      5-min Rain = 0
KTA1 062248Z 04013KT 17/13 A301 RMK A01 T01670130  RH  079%=      5-min Rain = 0
KTA1 062249Z 04012KT 17/13 A301 RMK A01 T01670130  RH  079%=      5-min Rain = 0
KTA1 062250Z 04016KT 17/13 A301 RMK A01 T01670131  RH  079%=      5-min Rain = 0
KTA1 062251Z 04015KT 17/13 A3009 RMK A01 T01670131  RH  079%=      5-min Rain = 0
KTA1 062252Z 04015KT 17/13 A3009 RMK A01 T01660131  RH  080%=      5-min Rain = 0
KTA1 062253Z 04014KT 17/13 A3009 RMK A01 T01650131  RH  080%=      5-min Rain = 0
KTA1 062254Z 04015KT 17/13 A3009 RMK A01 T01650131  RH  080%=      5-min Rain = 0
KTA1 062255Z 04015KT 17/13 A3009 RMK A01 T01650131  RH  080%=      5-min Rain = 0
KTA1 062256Z 04016KT 17/13 A301 RMK A01 T01650131  RH  080%=      5-min Rain = 0
KTA1 062257Z 04014KT 17/13 A301 RMK A01 T01650131  RH  080%=      5-min Rain = 0
KTA1 062258Z 04011KT 17/13 A301 RMK A01 T01650131  RH  080%=      5-min Rain = 0
KTA1 062259Z 05012KT 17/13 A301 RMK A01 T01650131  RH  080%=      5-min Rain = 0
KTA1 062300Z 05014KT 17/13 A301 RMK A01 T01660131  RH  080%=      5-min Rain = 0
KTA1 062301Z 04011KT 17/13 A301 RMK A01 T01650130  RH  080%=      5-min Rain = 0
KTA1 062302Z 04012KT 17/13 A301 RMK A01 T01660131  RH  080%=      5-min Rain = 0
KTA1 062303Z 04012KT 17/13 A301 RMK A01 T01660131  RH  080%=      5-min Rain = 0
KTA1 062304Z 04014KT 17/13 A301 RMK A01 T01660131  RH  079%=      5-min Rain = 0
KTA1 062305Z 04013KT 17/13 A301 RMK A01 T01670131  RH  079%=      5-min Rain = 0
KTA1 062306Z 03011KT 17/13 A301 RMK A01 T01670131  RH  079%=      5-min Rain = 0
KTA1 062307Z 04012KT 17/13 A301 RMK A01 T01670130  RH  079%=      5-min Rain = 0
KTA1 062308Z 03013KT 17/13 A301 RMK A01 T01670130  RH  079%=      5-min Rain = 0
KTA1 062309Z 04014KT 17/13 A301 RMK A01 T01680130  RH  079%=      5-min Rain = 0
KTA1 062310Z 04013KT 17/13 A301 RMK A01 T01670130  RH  079%=      5-min Rain = 0
KTA1 062311Z 04013KT 17/13 A301 RMK A01 T01670130  RH  079%=      5-min Rain = 0
KTA1 062312Z 04013KT 17/13 A301 RMK A01 T01670130  RH  079%=      5-min Rain = 0
KTA1 062313Z 04013KT 17/13 A301 RMK A01 T01670130  RH  079%=      5-min Rain = 0
KTA1 062314Z 03011KT 17/13 A301 RMK A01 T01670130  RH  079%=      5-min Rain = 0
KTA1 062315Z 03014KT 17/13 A301 RMK A01 T01670130  RH  079%=      5-min Rain = 0
KTA1 062316Z 04014KT 17/13 A301 RMK A01 T01670130  RH  079%=      5-min Rain = 0
KTA1 062317Z 04014KT 17/13 A301 RMK A01 T01670130  RH  079%=      5-min Rain = 0
KTA1 062318Z 04014KT 17/13 A301 RMK A01 T01660130  RH  079%=      5-min Rain = 0
KTA1 062319Z 05015KT 17/13 A301 RMK A01 T01650130  RH  080%=      5-min Rain = 0
KTA1 062320Z 04015KT 17/13 A3009 RMK A01 T01650130  RH  080%=      5-min Rain = 0
KTA1 062321Z 04014KT 16/13 A3009 RMK A01 T01640130  RH  080%=      5-min Rain = 0
KTA1 062322Z 05010KT 16/13 A3009 RMK A01 T01640130  RH  081%=      5-min Rain = 0
KTA1 062323Z 05012KT 16/13 A301 RMK A01 T01640130  RH  081%=      5-min Rain = 0
KTA1 062324Z 05013KT 16/13 A301 RMK A01 T01640131  RH  080%=      5-min Rain = 0
KTA1 062325Z 05013KT 16/13 A301 RMK A01 T01640130  RH  080%=      5-min Rain = 0
KTA1 062326Z 05012KT 16/13 A301 RMK A01 T01640130  RH  080%=      5-min Rain = 0
KTA1 062327Z 05014KT 16/13 A301 RMK A01 T01640130  RH  081%=      5-min Rain = 0
KTA1 062328Z 05012KT 16/13 A301 RMK A01 T01640130  RH  081%=      5-min Rain = 0
KTA1 062329Z 04014KT 16/13 A301 RMK A01 T01640130  RH  081%=      5-min Rain = 0
KTA1 062330Z 05012KT 16/13 A301 RMK A01 T01630130  RH  081%=      5-min Rain = 0
KTA1 062331Z 05012KT 16/13 A301 RMK A01 T01630130  RH  081%=      5-min Rain = 0
KTA1 062332Z 05012KT 16/13 A301 RMK A01 T01630130  RH  080%=      5-min Rain = 0
KTA1 062333Z 05013KT 16/13 A301 RMK A01 T01630129  RH  080%=      5-min Rain = 0
KTA1 062334Z 05012KT 16/13 A301 RMK A01 T01630129  RH  080%=      5-min Rain = 0
KTA1 062335Z 05013KT 16/13 A301 RMK A01 T01630129  RH  080%=      5-min Rain = 0
KTA1 062336Z 05012KT 16/13 A301 RMK A01 T01630129  RH  080%=      5-min Rain = 0
KTA1 062337Z 05011KT 16/13 A301 RMK A01 T01630129  RH  080%=      5-min Rain = 0
KTA1 062338Z 05013KT 16/13 A301 RMK A01 T01630129  RH  080%=      5-min Rain = 0
KTA1 062339Z 05013KT 16/13 A301 RMK A01 T01630129  RH  080%=      5-min Rain = 0
KTA1 062340Z 05012KT 16/13 A301 RMK A01 T01630129  RH  080%=      5-min Rain = 0
KTA1 062341Z 05011KT 16/13 A301 RMK A01 T01620128  RH  080%=      5-min Rain = 0
KTA1 062342Z 05012KT 16/13 A301 RMK A01 T01620128  RH  080%=      5-min Rain = 0
KTA1 062343Z 06013KT 16/13 A301 RMK A01 T01620128  RH  080%=      5-min Rain = 0
KTA1 062344Z 05010KT 16/13 A3009 RMK A01 T01620128  RH  080%=      5-min Rain = 0
KTA1 062345Z 06013KT 16/13 A3009 RMK A01 T01620128  RH  080%=      5-min Rain = 0
KTA1 062346Z 06012KT 16/13 A3009 RMK A01 T01620128  RH  080%=      5-min Rain = 0
KTA1 062347Z 05010KT 16/13 A3009 RMK A01 T01620128  RH  080%=      5-min Rain = 0
KTA1 062348Z 06011KT 16/13 A3009 RMK A01 T01620128  RH  080%=      5-min Rain = 0
KTA1 062349Z 06013KT 16/13 A3009 RMK A01 T01620128  RH  080%=      5-min Rain = 0
KTA1 062350Z 06012KT 16/13 A3009 RMK A01 T01620128  RH  080%=      5-min Rain = 0
KTA1 062351Z 06011KT 16/13 A3009 RMK A01 T01610127  RH  080%=      5-min Rain = 0
KTA1 062352Z 06013KT 16/13 A3009 RMK A01 T01610127  RH  080%=      5-min Rain = 0
KTA1 062353Z 06012KT 16/13 A3009 RMK A01 T01610127  RH  080%=      5-min Rain = 0
KTA1 062354Z 06012KT 16/13 A3009 RMK A01 T01600127  RH  081%=      5-min Rain = 0
KTA1 062355Z 06009KT 16/13 A3009 RMK A01 T01610127  RH  081%=      5-min Rain = 0
KTA1 062356Z 06009KT 16/13 A3009 RMK A01 T01600127  RH  081%=      5-min Rain = 0
KTA1 062357Z 06009KT 16/13 A3009 RMK A01 T01610127  RH  080%=      5-min Rain = 0
KTA1 062358Z 06009KT 16/13 A3009 RMK A01 T01610126  RH  080%=      5-min Rain = 0
KTA1 062359Z 06010G15KT 16/13 A3009 RMK A01 T01610126  RH  080%=      5-min Rain = 0
KTA1 070000Z 06013KT 16/13 A3009 RMK A01 T01610126  RH  080%=      5-min Rain = 0
KTA1 070001Z 06012KT 16/13 A3009 RMK A01 T01610126  RH  080%=      5-min Rain = 0
KTA1 070002Z 06012KT 16/13 A3009 RMK A01 T01610126  RH  080%=      5-min Rain = 0
KTA1 070003Z 05012KT 16/13 A3009 RMK A01 T01610126  RH  080%=      5-min Rain = 0
KTA1 070004Z 06014KT 16/13 A3009 RMK A01 T01610126  RH  080%=      5-min Rain = 0
KTA1 070005Z 05011KT 16/13 A3009 RMK A01 T01610126  RH  080%=      5-min Rain = 0
KTA1 070006Z 05013KT 16/13 A3009 RMK A01 T01610126  RH  080%=      5-min Rain = 0
KTA1 070007Z 05013KT 16/13 A3009 RMK A01 T01610127  RH  080%=      5-min Rain = 0
KTA1 070008Z 05012KT 16/13 A3009 RMK A01 T01600126  RH  080%=      5-min Rain = 0
KTA1 070009Z 05011KT 16/13 A3009 RMK A01 T01600127  RH  081%=      5-min Rain = 0
KTA1 070010Z 05011KT 16/13 A3009 RMK A01 T01600127  RH  081%=      5-min Rain = 0
KTA1 070011Z 05011KT 16/13 A3009 RMK A01 T01600127  RH  081%=      5-min Rain = 0
KTA1 070012Z 05010KT 16/13 A3009 RMK A01 T01600127  RH  081%=      5-min Rain = 0
KTA1 070013Z 05011KT 16/13 A3009 RMK A01 T01600127  RH  081%=      5-min Rain = 0
KTA1 070014Z 05011KT 16/13 A3009 RMK A01 T01600127  RH  081%=      5-min Rain = 0
KTA1 070015Z 05012KT 16/13 A3009 RMK A01 T01600127  RH  081%=      5-min Rain = 0
KTA1 070016Z 05010KT 16/13 A3009 RMK A01 T01600128  RH  081%=      5-min Rain = 0
KTA1 070017Z 05010KT 16/13 A3009 RMK A01 T01590127  RH  081%=      5-min Rain = 0
KTA1 070018Z 05009KT 16/13 A3009 RMK A01 T01590127  RH  081%=      5-min Rain = 0
KTA1 070019Z 05008KT 16/13 A3009 RMK A01 T01590127  RH  081%=      5-min Rain = 0
KTA1 070020Z 05008KT 16/13 A3009 RMK A01 T01590128  RH  082%=      5-min Rain = 0
KTA1 070021Z 05008KT 16/13 A3009 RMK A01 T01590128  RH  082%=      5-min Rain = 0
KTA1 070022Z 05011KT 16/13 A3009 RMK A01 T01590128  RH  082%=      5-min Rain = 0
KTA1 070023Z 05010KT 16/13 A3009 RMK A01 T01590128  RH  082%=      5-min Rain = 0
KTA1 070024Z 05011KT 16/13 A3009 RMK A01 T01590129  RH  082%=      5-min Rain = 0
KTA1 070025Z 05010KT 16/13 A3009 RMK A01 T01590129  RH  083%=      5-min Rain = 0
KTA1 070026Z 05011KT 16/13 A3009 RMK A01 T01590130  RH  083%=      5-min Rain = 0
KTA1 070027Z 05011KT 16/13 A3009 RMK A01 T01580129  RH  083%=      5-min Rain = 0
KTA1 070028Z 05010KT 16/13 A3009 RMK A01 T01580129  RH  083%=      5-min Rain = 0
KTA1 070029Z 05010KT 16/13 A3009 RMK A01 T01590130  RH  083%=      5-min Rain = 0
KTA1 070030Z 05011KT 16/13 A3009 RMK A01 T01580130  RH  083%=      5-min Rain = 0
KTA1 070031Z 05011KT 16/13 A3009 RMK A01 T01580130  RH  083%=      5-min Rain = 0
KTA1 070032Z 05010KT 16/13 A3009 RMK A01 T01580130  RH  083%=      5-min Rain = 0
KTA1 070033Z 05011KT 16/13 A301 RMK A01 T01580130  RH  083%=      5-min Rain = 0
KTA1 070034Z 05010KT 16/13 A301 RMK A01 T01580130  RH  084%=      5-min Rain = 0
KTA1 070035Z 05009KT 16/13 A301 RMK A01 T01580130  RH  084%=      5-min Rain = 0
KTA1 070036Z 05010KT 16/13 A301 RMK A01 T01580130  RH  084%=      5-min Rain = 0
KTA1 070037Z 05009KT 16/13 A301 RMK A01 T01580131  RH  084%=      5-min Rain = 0
KTA1 070038Z 05009KT 16/13 A301 RMK A01 T01580131  RH  084%=      5-min Rain = 0
KTA1 070039Z 05009KT 16/13 A301 RMK A01 T01580131  RH  084%=      5-min Rain = 0
KTA1 070040Z 05010KT 16/13 A301 RMK A01 T01570130  RH  084%=      5-min Rain = 0
KTA1 070041Z 04008KT 16/13 A301 RMK A01 T01570131  RH  084%=      5-min Rain = 0
KTA1 070042Z 04009KT 16/13 A301 RMK A01 T01570131  RH  084%=      5-min Rain = 0
KTA1 070043Z 05008KT 16/13 A301 RMK A01 T01570131  RH  084%=      5-min Rain = 0
KTA1 070044Z 05009KT 16/13 A301 RMK A01 T01570131  RH  084%=      5-min Rain = 0
KTA1 070045Z 04008KT 16/13 A301 RMK A01 T01570131  RH  085%=      5-min Rain = 0
KTA1 070046Z 04010KT 16/13 A301 RMK A01 T01570131  RH  085%=      5-min Rain = 0
KTA1 070047Z 04010KT 16/13 A301 RMK A01 T01570132  RH  085%=      5-min Rain = 0
KTA1 070048Z 04010KT 16/13 A301 RMK A01 T01570132  RH  085%=      5-min Rain = 0
KTA1 070049Z 05009KT 16/13 A301 RMK A01 T01570132  RH  085%=      5-min Rain = 0
KTA1 070050Z 05009KT 16/13 A301 RMK A01 T01570132  RH  085%=      5-min Rain = 0
KTA1 070051Z 05009KT 16/13 A301 RMK A01 T01570132  RH  085%=      5-min Rain = 0
KTA1 070052Z 05008KT 16/13 A301 RMK A01 T01570132  RH  085%=      5-min Rain = 0
KTA1 070053Z 05009KT 16/13 A301 RMK A01 T01570132  RH  085%=      5-min Rain = 0
KTA1 070054Z 05008KT 16/13 A301 RMK A01 T01560131  RH  085%=      5-min Rain = 0
KTA1 070055Z 05010KT 16/13 A301 RMK A01 T01560131  RH  085%=      5-min Rain = 0
KTA1 070056Z 05009KT 16/13 A301 RMK A01 T01560131  RH  085%=      5-min Rain = 0
KTA1 070057Z 05009KT 16/13 A301 RMK A01 T01560132  RH  085%=      5-min Rain = 0
KTA1 070058Z 05010KT 16/13 A301 RMK A01 T01570132  RH  085%=      5-min Rain = 0
KTA1 070059Z 06010KT 16/13 A3009 RMK A01 T01560131  RH  085%=      5-min Rain = 0
KTA1 070100Z 06010KT 16/13 A3009 RMK A01 T01560131  RH  085%=      5-min Rain = 0
KTA1 070101Z 06011KT 16/13 A3009 RMK A01 T01560131  RH  085%=      5-min Rain = 0
KTA1 070102Z 05009KT 16/13 A3009 RMK A01 T01560131  RH  085%=      5-min Rain = 0
KTA1 070103Z 05009KT 16/13 A3009 RMK A01 T01560131  RH  085%=      5-min Rain = 0
KTA1 070104Z 06009KT 16/13 A3009 RMK A01 T01570131  RH  085%=      5-min Rain = 0
KTA1 070105Z 06011KT 16/13 A3009 RMK A01 T01560131  RH  085%=      5-min Rain = 0
KTA1 070106Z 06010KT 16/13 A3009 RMK A01 T01560131  RH  085%=      5-min Rain = 0
KTA1 070107Z 06011KT 16/13 A3009 RMK A01 T01560130  RH  085%=      5-min Rain = 0
KTA1 070108Z 05010KT 16/13 A3009 RMK A01 T01560130  RH  085%=      5-min Rain = 0
KTA1 070109Z 06009KT 16/13 A3009 RMK A01 T01560130  RH  084%=      5-min Rain = 0
KTA1 070110Z 06010KT 16/13 A3009 RMK A01 T01570130  RH  084%=      5-min Rain = 0
KTA1 070111Z 06009KT 16/13 A301 RMK A01 T01570130  RH  084%=      5-min Rain = 0
KTA1 070112Z 06011KT 16/13 A301 RMK A01 T01570130  RH  084%=      5-min Rain = 0
KTA1 070113Z 06010KT 16/13 A301 RMK A01 T01570130  RH  084%=      5-min Rain = 0
KTA1 070114Z 06009KT 16/13 A301 RMK A01 T01560129  RH  084%=      5-min Rain = 0
KTA1 070115Z 06011KT 16/13 A301 RMK A01 T01560129  RH  084%=      5-min Rain = 0
KTA1 070116Z 06011KT 16/13 A301 RMK A01 T01560130  RH  084%=      5-min Rain = 0
KTA1 070117Z 06011KT 16/13 A301 RMK A01 T01560129  RH  084%=      5-min Rain = 0
KTA1 070118Z 06009KT 16/13 A301 RMK A01 T01560129  RH  084%=      5-min Rain = 0
KTA1 070119Z 06009KT 16/13 A301 RMK A01 T01550129  RH  084%=      5-min Rain = 0
KTA1 070120Z 06011KT 16/13 A301 RMK A01 T01560129  RH  084%=      5-min Rain = 0
KTA1 070121Z 07012KT 16/13 A301 RMK A01 T01560129  RH  084%=      5-min Rain = 0
KTA1 070122Z 06011KT 16/13 A301 RMK A01 T01560129  RH  084%=      5-min Rain = 0
KTA1 070123Z 07011KT 16/13 A301 RMK A01 T01550129  RH  084%=      5-min Rain = 0
KTA1 070124Z 07009KT 16/13 A3009 RMK A01 T01550129  RH  084%=      5-min Rain = 0
KTA1 070125Z 07009KT 16/13 A3009 RMK A01 T01550129  RH  084%=      5-min Rain = 0
KTA1 070126Z 07010KT 16/13 A3009 RMK A01 T01550129  RH  084%=      5-min Rain = 0
KTA1 070127Z 07009KT 16/13 A3009 RMK A01 T01550129  RH  085%=      5-min Rain = 0
KTA1 070128Z 07010KT 16/13 A3009 RMK A01 T01550129  RH  085%=      5-min Rain = 0
KTA1 070129Z 07010KT 15/13 A3009 RMK A01 T01540128  RH  085%=      5-min Rain = 0
KTA1 070130Z 07011KT 15/13 A3009 RMK A01 T01540128  RH  085%=      5-min Rain = 0
KTA1 070131Z 07011KT 15/13 A3009 RMK A01 T01540129  RH  085%=      5-min Rain = 0
KTA1 070132Z 07010KT 15/13 A3009 RMK A01 T01540129  RH  085%=      5-min Rain = 0
KTA1 070133Z 07012KT 15/13 A3009 RMK A01 T01540129  RH  085%=      5-min Rain = 0
KTA1 070134Z 07014KT 15/13 A3009 RMK A01 T01540129  RH  085%=      5-min Rain = 0
KTA1 070135Z 07012KT 15/13 A3009 RMK A01 T01540129  RH  085%=      5-min Rain = 0
KTA1 070136Z 07012KT 15/13 A3009 RMK A01 T01540129  RH  085%=      5-min Rain = 0
KTA1 070137Z 07011KT 15/13 A3009 RMK A01 T01540130  RH  085%=      5-min Rain = 0
KTA1 070138Z 07013KT 16/13 A3009 RMK A01 T01550130  RH  085%=      5-min Rain = 0
KTA1 070139Z 06010KT 16/13 A3009 RMK A01 T01550130  RH  085%=      5-min Rain = 0
KTA1 070140Z 06011KT 15/13 A301 RMK A01 T01540129  RH  085%=      5-min Rain = 0
KTA1 070141Z 07012KT 16/13 A301 RMK A01 T01550129  RH  085%=      5-min Rain = 0
KTA1 070142Z 06011KT 16/13 A301 RMK A01 T01550130  RH  085%=      5-min Rain = 0
KTA1 070143Z 06012KT 16/13 A301 RMK A01 T01550130  RH  085%=      5-min Rain = 0
KTA1 070144Z 07009KT 16/13 A301 RMK A01 T01550130  RH  085%=      5-min Rain = 0
KTA1 070145Z 07011KT 16/13 A301 RMK A01 T01550129  RH  085%=      5-min Rain = 0
KTA1 070146Z 07010KT 16/13 A301 RMK A01 T01550129  RH  085%=      5-min Rain = 0
KTA1 070147Z 06010KT 16/13 A301 RMK A01 T01550130  RH  085%=      5-min Rain = 0
KTA1 070148Z 07010KT 16/13 A301 RMK A01 T01550129  RH  085%=      5-min Rain = 0
KTA1 070149Z 06011KT 16/13 A301 RMK A01 T01560130  RH  085%=      5-min Rain = 0
KTA1 070150Z 06010KT 16/13 A301 RMK A01 T01560130  RH  085%=      5-min Rain = 0
KTA1 070151Z 06010KT 16/13 A301 RMK A01 T01550129  RH  085%=      5-min Rain = 0
KTA1 070152Z 06011KT 16/13 A301 RMK A01 T01550129  RH  084%=      5-min Rain = 0
KTA1 070153Z 06011KT 16/13 A301 RMK A01 T01560130  RH  084%=      5-min Rain = 0
KTA1 070154Z 06011KT 16/13 A301 RMK A01 T01560130  RH  084%=      5-min Rain = 0
KTA1 070155Z 06010KT 16/13 A301 RMK A01 T01560130  RH  084%=      5-min Rain = 0
KTA1 070156Z 06011KT 16/13 A301 RMK A01 T01560129  RH  084%=      5-min Rain = 0
KTA1 070157Z 06011KT 16/13 A3009 RMK A01 T01560129  RH  084%=      5-min Rain = 0
KTA1 070158Z 06012KT 16/13 A3009 RMK A01 T01560130  RH  084%=      5-min Rain = 0
KTA1 070159Z 06013KT 16/13 A301 RMK A01 T01560130  RH  084%=      5-min Rain = 0
KTA1 070200Z 06011KT 16/13 A301 RMK A01 T01560129  RH  084%=      5-min Rain = 0
KTA1 070201Z 06013KT 16/13 A301 RMK A01 T01560129  RH  084%=      5-min Rain = 0
KTA1 070202Z 06010KT 16/13 A3009 RMK A01 T01570129  RH  084%=      5-min Rain = 0
KTA1 070203Z 06010KT 16/13 A3009 RMK A01 T01570129  RH  083%=      5-min Rain = 0
KTA1 070204Z 06012KT 16/13 A3009 RMK A01 T01570129  RH  083%=      5-min Rain = 0
KTA1 070205Z 06011KT 16/13 A3009 RMK A01 T01570129  RH  083%=      5-min Rain = 0
KTA1 070206Z 07012KT 16/13 A3009 RMK A01 T01570129  RH  083%=      5-min Rain = 0
KTA1 070207Z 07012KT 16/13 A3009 RMK A01 T01570128  RH  083%=      5-min Rain = 0
KTA1 070208Z 07010KT 16/13 A3009 RMK A01 T01570128  RH  083%=      5-min Rain = 0
KTA1 070209Z 07010KT 16/13 A3009 RMK A01 T01570128  RH  083%=      5-min Rain = 0
KTA1 070210Z 07012KT 16/13 A3009 RMK A01 T01570128  RH  083%=      5-min Rain = 0
KTA1 070211Z 07012KT 16/13 A3009 RMK A01 T01570128  RH  083%=      5-min Rain = 0
KTA1 070212Z 07010KT 16/13 A3009 RMK A01 T01570128  RH  083%=      5-min Rain = 0
KTA1 070213Z 08010G15KT 16/13 A3009 RMK A01 T01570129  RH  083%=      5-min Rain = 0
KTA1 070214Z 07011KT 16/13 A3009 RMK A01 T01570129  RH  083%=      5-min Rain = 0
KTA1 070215Z 07009KT 16/13 A3009 RMK A01 T01570129  RH  083%=      5-min Rain = 0
KTA1 070216Z 07009KT 16/13 A3009 RMK A01 T01570129  RH  083%=      5-min Rain = 0
KTA1 070217Z 07010KT 16/13 A3009 RMK A01 T01570129  RH  084%=      5-min Rain = 0
KTA1 070218Z 07010KT 16/13 A3009 RMK A01 T01570130  RH  084%=      5-min Rain = 0
KTA1 070219Z 08012KT 16/13 A3009 RMK A01 T01560130  RH  084%=      5-min Rain = 0
KTA1 070220Z 07012KT 16/13 A3009 RMK A01 T01560130  RH  084%=      5-min Rain = 0
KTA1 070221Z 08013KT 16/13 A3009 RMK A01 T01560129  RH  084%=      5-min Rain = 0
KTA1 070222Z 07011KT 16/13 A3009 RMK A01 T01560130  RH  084%=      5-min Rain = 0
KTA1 070223Z 08010KT 16/13 A3009 RMK A01 T01560130  RH  085%=      5-min Rain = 0
KTA1 070224Z 08010KT 16/13 A3009 RMK A01 T01560131  RH  085%=      5-min Rain = 0
KTA1 070225Z 07011KT 16/13 A3009 RMK A01 T01550131  RH  085%=      5-min Rain = 0
KTA1 070226Z 08011KT 16/13 A3009 RMK A01 T01550131  RH  085%=      5-min Rain = 0
KTA1 070227Z 08012KT 16/13 A3009 RMK A01 T01550130  RH  085%=      5-min Rain = 0
KTA1 070228Z 08011KT 16/13 A3009 RMK A01 T01550130  RH  085%=      5-min Rain = 0
KTA1 070229Z 07009KT 16/13 A3008 RMK A01 T01550131  RH  086%=      5-min Rain = 0
KTA1 070230Z 08013KT 15/13 A3008 RMK A01 T01540131  RH  086%=      5-min Rain = 0
KTA1 070231Z 08012KT 15/13 A3009 RMK A01 T01540130  RH  086%=      5-min Rain = 0
KTA1 070232Z 08010KT 15/13 A3009 RMK A01 T01540131  RH  086%=      5-min Rain = 0
KTA1 070233Z 08011KT 15/13 A3008 RMK A01 T01540131  RH  086%=      5-min Rain = 0
KTA1 070234Z 08010KT 15/13 A3008 RMK A01 T01540131  RH  086%=      5-min Rain = 0
KTA1 070235Z 08009KT 15/13 A3009 RMK A01 T01540131  RH  086%=      5-min Rain = 0
KTA1 070236Z 08013KT 15/13 A3009 RMK A01 T01540132  RH  087%=      5-min Rain = 0
KTA1 070237Z 08012KT 15/13 A3009 RMK A01 T01530130  RH  086%=      5-min Rain = 0
KTA1 070238Z 08012KT 15/13 A3009 RMK A01 T01530130  RH  086%=      5-min Rain = 0
KTA1 070239Z 08011KT 15/13 A3009 RMK A01 T01540130  RH  086%=      5-min Rain = 0
KTA1 070240Z 08010KT 15/13 A3009 RMK A01 T01540131  RH  086%=      5-min Rain = 0
KTA1 070241Z 08011KT 15/13 A3009 RMK A01 T01540131  RH  086%=      5-min Rain = 0
KTA1 070242Z 08013KT 15/13 A3008 RMK A01 T01540131  RH  086%=      5-min Rain = 0
KTA1 070243Z 08011KT 15/13 A3008 RMK A01 T01540130  RH  086%=      5-min Rain = 0
KTA1 070244Z 08013KT 15/13 A3009 RMK A01 T01540130  RH  085%=      5-min Rain = 0
KTA1 070245Z 08011KT 16/13 A3009 RMK A01 T01550130  RH  085%=      5-min Rain = 0
KTA1 070246Z 08012KT 16/13 A3009 RMK A01 T01550129  RH  085%=      5-min Rain = 0
KTA1 070247Z 08012KT 16/13 A3009 RMK A01 T01550129  RH  085%=      5-min Rain = 0
KTA1 070248Z 08011KT 16/13 A3009 RMK A01 T01550129  RH  085%=      5-min Rain = 0
KTA1 070249Z 08009KT 16/13 A3009 RMK A01 T01550129  RH  085%=      5-min Rain = 0
KTA1 070250Z 08009KT 16/13 A3009 RMK A01 T01550130  RH  085%=      5-min Rain = 0
KTA1 070251Z 08008KT 16/13 A3009 RMK A01 T01550129  RH  085%=      5-min Rain = 0
KTA1 070252Z 08008KT 16/13 A3009 RMK A01 T01550129  RH  084%=      5-min Rain = 0
KTA1 070253Z 09007KT 16/13 A3009 RMK A01 T01560129  RH  084%=      5-min Rain = 0
KTA1 070254Z 07004KT 16/13 A301 RMK A01 T01560129  RH  084%=      5-min Rain = 0
KTA1 070255Z 04003KT 16/13 A301 RMK A01 T01550129  RH  084%=      5-min Rain = 0
KTA1 070256Z 36003KT 16/13 A301 RMK A01 T01550129  RH  084%=      5-min Rain = 0
KTA1 070257Z 35004KT 16/13 A301 RMK A01 T01560130  RH  085%=      5-min Rain = 0
KTA1 070258Z 32004KT 16/13 A3011 RMK A01 T01550130  RH  085%=      5-min Rain = 0
KTA1 070259Z 31004KT 16/13 A3011 RMK A01 T01550131  RH  085%=      5-min Rain = 0
KTA1 070300Z 31002KT 16/13 A3012 RMK A01 T01550128  RH  084%=      5-min Rain = 0
KTA1 070301Z 34003KT 16/13 A3012 RMK A01 T01560128  RH  084%=      5-min Rain = 0
KTA1 070302Z 30003KT 16/13 A3012 RMK A01 T01560129  RH  084%=      5-min Rain = 0
KTA1 070303Z 31002KT 16/13 A3012 RMK A01 T01560129  RH  084%=      5-min Rain = 0
KTA1 070304Z 02001KT 16/13 A3012 RMK A01 T01570129  RH  083%=      5-min Rain = 0.01
KTA1 070305Z 05004KT 16/13 A3012 RMK A01 T01560129  RH  084%=      5-min Rain = 0.01
KTA1 070306Z 04004KT 16/13 A3011 RMK A01 T01560130  RH  085%=      5-min Rain = 0.01
KTA1 070307Z 06006KT 16/13 A3011 RMK A01 T01550131  RH  086%=      5-min Rain = 0.02
KTA1 070308Z 08006KT 15/13 A3011 RMK A01 T01540131  RH  086%=      5-min Rain = 0
KTA1 070309Z 09007KT 15/13 A3011 RMK A01 T01530132  RH  087%=      5-min Rain = 0.01
KTA1 070310Z 11008KT 15/13 A3011 RMK A01 T01520133  RH  088%=      5-min Rain = 0.01
KTA1 070311Z 12010KT 15/13 A3012 RMK A01 T01510134  RH  090%=      5-min Rain = 0
KTA1 070312Z 12010KT 15/14 A3012 RMK A01 T01500135  RH  091%=      5-min Rain = 0.01
KTA1 070313Z 11010KT 15/14 A3011 RMK A01 T01500136  RH  091%=      5-min Rain = 0
KTA1 070314Z 10009KT 15/14 A3011 RMK A01 T01500135  RH  091%=      5-min Rain = 0
KTA1 070315Z 13008KT 15/14 A3011 RMK A01 T01500135  RH  091%=      5-min Rain = 0
KTA1 070316Z 15012KT 15/14 A3011 RMK A01 T01490136  RH  092%=      5-min Rain = 0.01
KTA1 070317Z 14012KT 15/14 A3011 RMK A01 T01490137  RH  092%=      5-min Rain = 0
KTA1 070318Z 12013KT 15/14 A301 RMK A01 T01490136  RH  092%=      5-min Rain = 0
KTA1 070319Z 11012KT 15/14 A3009 RMK A01 T01490136  RH  092%=      5-min Rain = 0
KTA1 070320Z 12014KT 15/14 A3009 RMK A01 T01490135  RH  092%=      5-min Rain = 0
KTA1 070321Z 13014KT 15/14 A3009 RMK A01 T01490135  RH  092%=      5-min Rain = 0.01
KTA1 070322Z 15012KT 15/14 A3008 RMK A01 T01480136  RH  092%=      5-min Rain = 0
KTA1 070323Z 14013KT 15/14 A3009 RMK A01 T01490137  RH  093%=      5-min Rain = 0
KTA1 070324Z 11020G29KT 15/14 A3009 RMK A01 T01480137  RH  093%=      5-min Rain = 0
KTA1 070325Z 11020KT 15/14 A3009 RMK A01 T01490135  RH  091%=      5-min Rain = 0.01
KTA1 070326Z 11017G24KT 15/14 A3009 RMK A01 T01520136  RH  090%=      5-min Rain = 0
KTA1 070327Z 12017KT 15/14 A3009 RMK A01 T01540138  RH  090%=      5-min Rain = 0
KTA1 070328Z 13013KT 15/14 A3009 RMK A01 T01540137  RH  089%=      5-min Rain = 0
KTA1 070329Z 13013G18KT 15/14 A3009 RMK A01 T01530137  RH  090%=      5-min Rain = 0.01
KTA1 070330Z 14012KT 15/14 A301 RMK A01 T01520137  RH  090%=      5-min Rain = 0
KTA1 070331Z 14013KT 15/14 A301 RMK A01 T01510137  RH  091%=      5-min Rain = 0
KTA1 070332Z 13015KT 15/14 A3009 RMK A01 T01500137  RH  092%=      5-min Rain = 0
KTA1 070333Z 12015KT 15/14 A3009 RMK A01 T01490137  RH  092%=      5-min Rain = 0.01
KTA1 070334Z 10013KT 15/14 A3009 RMK A01 T01490137  RH  092%=      5-min Rain = 0
KTA1 070335Z 10013KT 15/14 A3009 RMK A01 T01490137  RH  093%=      5-min Rain = 0
KTA1 070336Z 10017G23KT 15/14 A3009 RMK A01 T01490138  RH  093%=      5-min Rain = 0
KTA1 070337Z 10019KT 15/14 A3009 RMK A01 T01500136  RH  091%=      5-min Rain = 0
KTA1 070338Z 10020KT 15/14 A3009 RMK A01 T01510135  RH  090%=      5-min Rain = 0
KTA1 070339Z 10020KT 15/13 A3009 RMK A01 T01510134  RH  090%=      5-min Rain = 0
KTA1 070340Z 12016KT 15/13 A3009 RMK A01 T01510134  RH  090%=      5-min Rain = 0
KTA1 070341Z 13014KT 15/14 A3009 RMK A01 T01510135  RH  090%=      5-min Rain = 0
KTA1 070342Z 11010KT 15/14 A3009 RMK A01 T01500136  RH  091%=      5-min Rain = 0
KTA1 070343Z 10009KT 15/14 A301 RMK A01 T01500137  RH  092%=      5-min Rain = 0
KTA1 070344Z 09012KT 15/14 A301 RMK A01 T01490137  RH  093%=      5-min Rain = 0
KTA1 070345Z 09011KT 15/14 A301 RMK A01 T01480137  RH  093%=      5-min Rain = 0
KTA1 070346Z 09010KT 15/14 A301 RMK A01 T01490137  RH  093%=      5-min Rain = 0
KTA1 070347Z 09010KT 15/14 A301 RMK A01 T01490138  RH  093%=      5-min Rain = 0
KTA1 070348Z 08010KT 15/14 A301 RMK A01 T01490137  RH  093%=      5-min Rain = 0
KTA1 070349Z 09011KT 15/14 A301 RMK A01 T01490138  RH  093%=      5-min Rain = 0
KTA1 070350Z 10009KT 15/14 A301 RMK A01 T01490138  RH  093%=      5-min Rain = 0.01
KTA1 070351Z 11008KT 15/14 A301 RMK A01 T01480138  RH  093%=      5-min Rain = 0
KTA1 070352Z 11007KT 15/14 A3011 RMK A01 T01490138  RH  093%=      5-min Rain = 0
KTA1 070353Z 11004KT 15/14 A3012 RMK A01 T01490138  RH  093%=      5-min Rain = 0
KTA1 070354Z 09005KT 15/14 A3012 RMK A01 T01490138  RH  093%=      5-min Rain = 0
KTA1 070355Z 07004KT 15/14 A3012 RMK A01 T01480137  RH  093%=      5-min Rain = 0
KTA1 070356Z 07004KT 15/14 A3012 RMK A01 T01480138  RH  093%=      5-min Rain = 0.01
KTA1 070357Z 06006KT 15/14 A3013 RMK A01 T01480138  RH  094%=      5-min Rain = 0
KTA1 070358Z 06007KT 15/14 A3013 RMK A01 T01480139  RH  094%=      5-min Rain = 0
KTA1 070359Z 05006KT 15/14 A3013 RMK A01 T01480139  RH  094%=      5-min Rain = 0
KTA1 070400Z 05007KT 15/14 A3013 RMK A01 T01480139  RH  094%=      5-min Rain = 0
KTA1 070401Z 04007KT 15/14 A3013 RMK A01 T01480139  RH  094%=      5-min Rain = 0
KTA1 070402Z 04008KT 15/14 A3013 RMK A01 T01480139  RH  095%=      5-min Rain = 0
KTA1 070403Z 04009KT 15/14 A3013 RMK A01 T01480140  RH  095%=      5-min Rain = 0
KTA1 070404Z 03008KT 15/14 A3013 RMK A01 T01480140  RH  095%=      5-min Rain = 0
KTA1 070405Z 02008KT 15/14 A3013 RMK A01 T01480140  RH  095%=      5-min Rain = 0
KTA1 070406Z 03009KT 15/14 A3013 RMK A01 T01480140  RH  095%=      5-min Rain = 0
KTA1 070407Z 02009KT 15/14 A3013 RMK A01 T01480140  RH  095%=      5-min Rain = 0
KTA1 070408Z 02010KT 15/14 A3013 RMK A01 T01480140  RH  095%=      5-min Rain = 0
KTA1 070409Z 02009KT 15/14 A3013 RMK A01 T01480140  RH  095%=      5-min Rain = 0
KTA1 070410Z 02011KT 15/14 A3013 RMK A01 T01480141  RH  095%=      5-min Rain = 0
KTA1 070411Z 02010KT 15/14 A3013 RMK A01 T01480140  RH  095%=      5-min Rain = 0.01
KTA1 070412Z 02010KT 15/14 A3013 RMK A01 T01480141  RH  095%=      5-min Rain = 0
KTA1 070413Z 02011KT 15/14 A3013 RMK A01 T01480141  RH  096%=      5-min Rain = 0
KTA1 070414Z 02010KT 15/14 A3013 RMK A01 T01480141  RH  096%=      5-min Rain = 0
KTA1 070415Z 02010KT 15/14 A3014 RMK A01 T01480141  RH  096%=      5-min Rain = 0
KTA1 070416Z 01010KT 15/14 A3014 RMK A01 T01480141  RH  095%=      5-min Rain = 0
KTA1 070417Z 01009KT 15/14 A3014 RMK A01 T01480140  RH  095%=      5-min Rain = 0
KTA1 070418Z 00009KT 15/14 A3014 RMK A01 T01480140  RH  095%=      5-min Rain = 0
KTA1 070419Z 01010KT 15/14 A3014 RMK A01 T01480141  RH  096%=      5-min Rain = 0
KTA1 070420Z 01009KT 15/14 A3015 RMK A01 T01480141  RH  096%=      5-min Rain = 0
KTA1 070421Z 00009KT 15/14 A3015 RMK A01 T01470140  RH  096%=      5-min Rain = 0
KTA1 070422Z 36009KT 15/14 A3015 RMK A01 T01470141  RH  096%=      5-min Rain = 0
KTA1 070423Z 36009KT 15/14 A3016 RMK A01 T01470141  RH  096%=      5-min Rain = 0
KTA1 070424Z 35010KT 15/14 A3016 RMK A01 T01470141  RH  096%=      5-min Rain = 0
KTA1 070425Z 35010KT 15/14 A3016 RMK A01 T01470141  RH  096%=      5-min Rain = 0
KTA1 070426Z 35009KT 15/14 A3015 RMK A01 T01470141  RH  096%=      5-min Rain = 0
KTA1 070427Z 36012KT 15/14 A3015 RMK A01 T01470141  RH  096%=      5-min Rain = 0
KTA1 070428Z 36011KT 15/14 A3015 RMK A01 T01470141  RH  096%=      5-min Rain = 0
KTA1 070429Z 36011KT 15/14 A3015 RMK A01 T01470141  RH  096%=      5-min Rain = 0
KTA1 070430Z 36011KT 15/14 A3015 RMK A01 T01470141  RH  096%=      5-min Rain = 0
KTA1 070431Z 00010KT 15/14 A3015 RMK A01 T01470141  RH  096%=      5-min Rain = 0
KTA1 070432Z 00011KT 15/14 A3015 RMK A01 T01470141  RH  096%=      5-min Rain = 0
KTA1 070433Z 00011KT 15/14 A3015 RMK A01 T01470141  RH  097%=      5-min Rain = 0
KTA1 070434Z 00011KT 15/14 A3015 RMK A01 T01470141  RH  097%=      5-min Rain = 0.01
KTA1 070435Z 01008KT 15/14 A3015 RMK A01 T01470141  RH  097%=      5-min Rain = 0
KTA1 070436Z 01010KT 15/14 A3015 RMK A01 T01470142  RH  097%=      5-min Rain = 0
KTA1 070437Z 01010KT 15/14 A3015 RMK A01 T01470142  RH  097%=      5-min Rain = 0
KTA1 070438Z 01011KT 15/14 A3015 RMK A01 T01470142  RH  097%=      5-min Rain = 0
KTA1 070439Z 01010KT 15/14 A3015 RMK A01 T01470142  RH  097%=      5-min Rain = 0
KTA1 070440Z 01011KT 15/14 A3015 RMK A01 T01470142  RH  097%=      5-min Rain = 0
KTA1 070441Z 01010KT 15/14 A3015 RMK A01 T01470142  RH  097%=      5-min Rain = 0
KTA1 070442Z 01010KT 15/14 A3015 RMK A01 T01470142  RH  097%=      5-min Rain = 0
KTA1 070443Z 01010KT 15/14 A3015 RMK A01 T01470142  RH  097%=      5-min Rain = 0.01
KTA1 070444Z 00011KT 15/14 A3015 RMK A01 T01470142  RH  097%=      5-min Rain = 0
KTA1 070445Z 01011KT 15/14 A3015 RMK A01 T01460142  RH  097%=      5-min Rain = 0.01
KTA1 070446Z 01010KT 15/14 A3015 RMK A01 T01460142  RH  097%=      5-min Rain = 0
KTA1 070447Z 01013KT 15/14 A3015 RMK A01 T01460142  RH  097%=      5-min Rain = 0
KTA1 070448Z 01012KT 15/14 A3015 RMK A01 T01460142  RH  097%=      5-min Rain = 0.01
KTA1 070449Z 01010KT 15/14 A3015 RMK A01 T01460142  RH  097%=      5-min Rain = 0
KTA1 070450Z 36008KT 15/14 A3015 RMK A01 T01460143  RH  098%=      5-min Rain = 0
KTA1 070451Z 36010KT 15/14 A3016 RMK A01 T01460143  RH  098%=      5-min Rain = 0.01
KTA1 070452Z 36011KT 15/14 A3016 RMK A01 T01460143  RH  098%=      5-min Rain = 0
KTA1 070453Z 35010KT 15/14 A3016 RMK A01 T01460143  RH  098%=      5-min Rain = 0
KTA1 070454Z 35010KT 15/14 A3016 RMK A01 T01460143  RH  098%=      5-min Rain = 0.01
KTA1 070455Z 35011KT 15/14 A3016 RMK A01 T01460143  RH  098%=      5-min Rain = 0
KTA1 070456Z 34010KT 15/14 A3016 RMK A01 T01460143  RH  098%=      5-min Rain = 0
KTA1 070457Z 34010KT 15/14 A3016 RMK A01 T01460144  RH  098%=      5-min Rain = 0.01
KTA1 070458Z 34009KT 15/14 A3016 RMK A01 T01460144  RH  099%=      5-min Rain = 0
KTA1 070459Z 34011KT 15/14 A3016 RMK A01 T01460144  RH  099%=      5-min Rain = 0
KTA1 070500Z 34012KT 15/14 A3016 RMK A01 T01460144  RH  099%=      5-min Rain = 0
KTA1 070501Z 34011KT 15/14 A3017 RMK A01 T01460144  RH  099%=      5-min Rain = 0.01
KTA1 070502Z 34012KT 15/14 A3017 RMK A01 T01460144  RH  099%=      5-min Rain = 0
KTA1 070503Z 34010KT 15/15 A3017 RMK A01 T01460145  RH  099%=      5-min Rain = 0.01
KTA1 070504Z 34012KT 15/14 A3017 RMK A01 T01460144  RH  099%=      5-min Rain = 0
KTA1 070505Z 35010KT 15/15 A3017 RMK A01 T01460145  RH  099%=      5-min Rain = 0.01
KTA1 070506Z 35008KT 15/14 A3016 RMK A01 T01460144  RH  099%=      5-min Rain = 0.01
KTA1 070507Z 00007KT 15/15 A3016 RMK A01 T01460145  RH  099%=      5-min Rain = 0.01
KTA1 070508Z 02008KT 15/15 A3016 RMK A01 T01460145  RH  099%=      5-min Rain = 0.02
KTA1 070509Z 02010KT 15/15 A3015 RMK A01 T01450145  RH  099%=      5-min Rain = 0.01
KTA1 070510Z 03010KT 15/14 A3015 RMK A01 T01450144  RH  099%=      5-min Rain = 0.02
KTA1 070511Z 04012KT 15/14 A3014 RMK A01 T01450144  RH  100%=      5-min Rain = 0
KTA1 070512Z 04014KT 15/14 A3014 RMK A01 T01450144  RH  100%=      5-min Rain = 0.02
KTA1 070513Z 03012KT 14/14 A3014 RMK A01 T01440143  RH  100%=      5-min Rain = 0.02
KTA1 070514Z 04012KT 14/14 A3014 RMK A01 T01440143  RH  100%=      5-min Rain = 0.03
KTA1 070515Z 04014KT 14/14 A3014 RMK A01 T01440144  RH  100%=      5-min Rain = 0.04
KTA1 070516Z 04014KT 14/14 A3013 RMK A01 T01440143  RH  100%=      5-min Rain = 0.02
KTA1 070517Z 05012KT 14/14 A3013 RMK A01 T01440144  RH  100%=      5-min Rain = 0.01
KTA1 070518Z 05014KT 14/14 A3013 RMK A01 T01430143  RH  100%=      5-min Rain = 0
KTA1 070519Z 05013KT 14/14 A3013 RMK A01 T01430143  RH  100%=      5-min Rain = 0.01
KTA1 070520Z 05013KT 14/14 A3013 RMK A01 T01430143  RH  100%=      5-min Rain = 0
KTA1 070521Z 06012KT 14/14 A3014 RMK A01 T01430143  RH  100%=      5-min Rain = 0.01
KTA1 070522Z 06013KT 14/14 A3014 RMK A01 T01430143  RH  100%=      5-min Rain = 0
KTA1 070523Z 06013KT 14/14 A3014 RMK A01 T01430143  RH  100%=      5-min Rain = 0
KTA1 070524Z 06012KT 14/14 A3014 RMK A01 T01430143  RH  100%=      5-min Rain = 0
KTA1 070525Z 06010KT 14/14 A3013 RMK A01 T01430143  RH  100%=      5-min Rain = 0.01
KTA1 070526Z 07011KT 14/14 A3013 RMK A01 T01430143  RH  100%=      5-min Rain = 0
KTA1 070527Z 07012KT 14/14 A3013 RMK A01 T01430143  RH  100%=      5-min Rain = 0
KTA1 070528Z 06011KT 14/14 A3013 RMK A01 T01430143  RH  100%=      5-min Rain = 0
KTA1 070529Z 07012KT 14/14 A3013 RMK A01 T01430143  RH  100%=      5-min Rain = 0
KTA1 070530Z 07015KT 14/14 A3013 RMK A01 T01440143  RH  100%=      5-min Rain = 0
KTA1 070531Z 07015KT 14/14 A3013 RMK A01 T01430143  RH  100%=      5-min Rain = 0.01
KTA1 070532Z 07014KT 14/14 A3013 RMK A01 T01430143  RH  100%=      5-min Rain = 0
KTA1 070533Z 07012KT 14/14 A3013 RMK A01 T01440143  RH  100%=      5-min Rain = 0
KTA1 070534Z 07010KT 14/14 A3013 RMK A01 T01440143  RH  100%=      5-min Rain = 0
KTA1 070535Z 07012KT 14/14 A3014 RMK A01 T01430143  RH  100%=      5-min Rain = 0
KTA1 070536Z 07011KT 14/14 A3014 RMK A01 T01440143  RH  100%=      5-min Rain = 0
KTA1 070537Z 07010KT 14/14 A3014 RMK A01 T01440143  RH  100%=      5-min Rain = 0
KTA1 070538Z 07010KT 14/14 A3014 RMK A01 T01440143  RH  100%=      5-min Rain = 0
KTA1 070539Z 07011KT 14/14 A3014 RMK A01 T01440143  RH  100%=      5-min Rain = 0
KTA1 070540Z 07010KT 14/14 A3014 RMK A01 T01440143  RH  100%=      5-min Rain = 0
KTA1 070541Z 06008KT 14/14 A3014 RMK A01 T01440143  RH  100%=      5-min Rain = 0
KTA1 070542Z 06011KT 14/14 A3014 RMK A01 T01440143  RH  100%=      5-min Rain = 0
KTA1 070543Z 06011KT 14/14 A3014 RMK A01 T01440144  RH  100%=      5-min Rain = 0
KTA1 070544Z 05011KT 14/14 A3014 RMK A01 T01440143  RH  100%=      5-min Rain = 0
KTA1 070545Z 06010KT 14/14 A3014 RMK A01 T01430143  RH  100%=      5-min Rain = 0.01
KTA1 070546Z 06009KT 14/14 A3014 RMK A01 T01430143  RH  100%=      5-min Rain = 0
KTA1 070547Z 06009KT 14/14 A3015 RMK A01 T01440143  RH  100%=      5-min Rain = 0
KTA1 070548Z 06008KT 14/14 A3015 RMK A01 T01440143  RH  100%=      5-min Rain = 0
KTA1 070549Z 06009KT 14/14 A3015 RMK A01 T01440143  RH  100%=      5-min Rain = 0.01
KTA1 070550Z 07011KT 14/14 A3015 RMK A01 T01440143  RH  100%=      5-min Rain = 0
KTA1 070551Z 07010KT 14/14 A3015 RMK A01 T01440143  RH  100%=      5-min Rain = 0
KTA1 070552Z 06010KT 14/14 A3014 RMK A01 T01440143  RH  100%=      5-min Rain = 0.01
KTA1 070553Z 07010KT 14/14 A3014 RMK A01 T01430143  RH  100%=      5-min Rain = 0
KTA1 070554Z 07009KT 14/14 A3014 RMK A01 T01440143  RH  100%=      5-min Rain = 0
KTA1 070555Z 07009KT 14/14 A3014 RMK A01 T01440143  RH  100%=      5-min Rain = 0
KTA1 070556Z 07009KT 14/14 A3014 RMK A01 T01440144  RH  100%=      5-min Rain = 0
KTA1 070557Z 07010KT 14/14 A3014 RMK A01 T01440143  RH  100%=      5-min Rain = 0
KTA1 070558Z 06008KT 14/14 A3014 RMK A01 T01440144  RH  100%=      5-min Rain = 0
KTA1 070559Z 05011KT 14/14 A3014 RMK A01 T01440144  RH  100%=      5-min Rain = 0

Page generated in 0.0924 seconds.